2016 Cux-Wetter.de -Die Nutzung der Wetterdaten nur mit ausdrcklicher Genehmigung
Wetterdaten: Montag, 13.06.2016
Datum Zeit Temp. A. Feuchte A. Luftdruck Regen Wind Richtung Richtung Sonnenschein Solar Taupunkt Windchill Windben
13.06.2016 00:00 13,3 C 93 % 1005,6 hPa 0,0 l/m 4,5 km/h (1 Bft) O-SO 119 0 min 0 W/m 12,2 C 13,3 C 9,7 km/h (2 Bft)
13.06.2016 00:03 13,3 C 93 % 1005,5 hPa 0,0 l/m 5,3 km/h (1 Bft) NO 46 0 min 0 W/m 12,2 C 13,3 C 12,9 km/h (3 Bft)
13.06.2016 00:06 13,3 C 93 % 1005,5 hPa 0,0 l/m 3,5 km/h (1 Bft) NO 53 0 min 0 W/m 12,2 C 13,3 C 11,3 km/h (2 Bft)
13.06.2016 00:09 13,3 C 93 % 1005,4 hPa 0,0 l/m 4,6 km/h (1 Bft) NO 49 0 min 0 W/m 12,2 C 13,3 C 11,3 km/h (2 Bft)
13.06.2016 00:12 13,3 C 93 % 1005,5 hPa 0,0 l/m 5,5 km/h (2 Bft) NO 51 0 min 0 W/m 12,2 C 13,3 C 20,9 km/h (4 Bft)
13.06.2016 00:15 13,3 C 93 % 1005,4 hPa 0,0 l/m 4,6 km/h (1 Bft) S-SO 150 0 min 0 W/m 12,2 C 13,3 C 11,3 km/h (2 Bft)
13.06.2016 00:18 13,3 C 93 % 1005,4 hPa 0,0 l/m 6,2 km/h (2 Bft) N-NO 30 0 min 0 W/m 12,2 C 13,3 C 14,5 km/h (3 Bft)
13.06.2016 00:21 13,3 C 93 % 1005,4 hPa 0,0 l/m 5,5 km/h (2 Bft) N-NO 28 0 min 0 W/m 12,2 C 13,3 C 14,5 km/h (3 Bft)
13.06.2016 00:24 13,3 C 93 % 1005,3 hPa 0,0 l/m 5,2 km/h (1 Bft) S-SW 211 0 min 0 W/m 12,2 C 13,3 C 14,5 km/h (3 Bft)
13.06.2016 00:27 13,3 C 93 % 1005,3 hPa 0,0 l/m 6,4 km/h (2 Bft) NO 52 0 min 0 W/m 12,2 C 13,3 C 14,5 km/h (3 Bft)
13.06.2016 00:30 13,3 C 94 % 1005,3 hPa 0,0 l/m 4,9 km/h (1 Bft) O 88 0 min 0 W/m 12,4 C 13,3 C 17,7 km/h (3 Bft)
13.06.2016 00:33 13,3 C 94 % 1005,3 hPa 0,0 l/m 3,7 km/h (1 Bft) O 82 0 min 0 W/m 12,4 C 13,3 C 8,0 km/h (2 Bft)
13.06.2016 00:36 13,3 C 94 % 1005,2 hPa 0,0 l/m 3,4 km/h (1 Bft) SO 139 0 min 0 W/m 12,4 C 13,3 C 11,3 km/h (2 Bft)
13.06.2016 00:39 13,3 C 94 % 1005,2 hPa 0,0 l/m 2,2 km/h (1 Bft) O-SO 107 0 min 0 W/m 12,4 C 13,3 C 4,8 km/h (1 Bft)
13.06.2016 00:42 13,3 C 94 % 1005,1 hPa 0,0 l/m 4,0 km/h (1 Bft) O 90 0 min 0 W/m 12,4 C 13,3 C 6,4 km/h (2 Bft)
13.06.2016 00:45 13,3 C 94 % 1005,1 hPa 0,0 l/m 3,5 km/h (1 Bft) O 101 0 min 0 W/m 12,4 C 13,3 C 9,7 km/h (2 Bft)
13.06.2016 00:48 13,3 C 94 % 1005,1 hPa 0,0 l/m 4,7 km/h (1 Bft) O-SO 106 0 min 0 W/m 12,4 C 13,3 C 11,3 km/h (2 Bft)
13.06.2016 00:51 13,3 C 94 % 1005,0 hPa 0,0 l/m 2,9 km/h (1 Bft) O 98 0 min 0 W/m 12,4 C 13,3 C 11,3 km/h (2 Bft)
13.06.2016 00:54 13,3 C 94 % 1005,0 hPa 0,0 l/m 3,7 km/h (1 Bft) O 100 0 min 0 W/m 12,4 C 13,3 C 11,3 km/h (2 Bft)
13.06.2016 00:57 13,3 C 94 % 1004,9 hPa 0,0 l/m 3,9 km/h (1 Bft) O-SO 111 0 min 0 W/m 12,4 C 13,3 C 9,7 km/h (2 Bft)
13.06.2016 01:00 13,2 C 94 % 1004,9 hPa 0,0 l/m 6,2 km/h (2 Bft) O-SO 103 0 min 0 W/m 12,3 C 13,2 C 14,5 km/h (3 Bft)
13.06.2016 01:03 13,2 C 94 % 1004,9 hPa 0,0 l/m 3,8 km/h (1 Bft) O-SO 111 0 min 0 W/m 12,3 C 13,2 C 14,5 km/h (3 Bft)
13.06.2016 01:06 13,2 C 94 % 1004,9 hPa 0,0 l/m 5,3 km/h (1 Bft) S-SO 149 0 min 0 W/m 12,3 C 13,2 C 14,5 km/h (3 Bft)
13.06.2016 01:09 13,2 C 94 % 1004,9 hPa 0,2 l/m 5,1 km/h (1 Bft) S-SO 162 0 min 0 W/m 12,3 C 13,2 C 17,7 km/h (3 Bft)
13.06.2016 01:12 13,2 C 94 % 1004,9 hPa 0,0 l/m 7,1 km/h (2 Bft) S-SO 163 0 min 0 W/m 12,3 C 12,8 C 12,9 km/h (3 Bft)
13.06.2016 01:15 13,2 C 94 % 1004,9 hPa 0,0 l/m 5,8 km/h (2 Bft) N 5 0 min 0 W/m 12,3 C 13,2 C 22,5 km/h (4 Bft)
13.06.2016 01:18 13,2 C 94 % 1004,9 hPa 0,0 l/m 5,1 km/h (1 Bft) O-SO 113 0 min 0 W/m 12,3 C 13,2 C 11,3 km/h (2 Bft)
13.06.2016 01:21 13,1 C 94 % 1004,8 hPa 0,2 l/m 5,6 km/h (2 Bft) O-SO 116 0 min 0 W/m 12,2 C 13,1 C 12,9 km/h (3 Bft)
13.06.2016 01:24 13,1 C 94 % 1004,8 hPa 0,0 l/m 5,3 km/h (1 Bft) SO 136 0 min 0 W/m 12,2 C 13,1 C 14,5 km/h (3 Bft)
13.06.2016 01:27 13,1 C 94 % 1004,8 hPa 0,0 l/m 6,5 km/h (2 Bft) SO 132 0 min 0 W/m 12,2 C 13,1 C 12,9 km/h (3 Bft)
13.06.2016 01:30 13,1 C 94 % 1004,7 hPa 0,0 l/m 3,7 km/h (1 Bft) S-SO 154 0 min 0 W/m 12,2 C 13,1 C 6,4 km/h (2 Bft)
13.06.2016 01:33 13,0 C 94 % 1004,6 hPa 0,0 l/m 5,4 km/h (2 Bft) O-SO 115 0 min 0 W/m 12,1 C 13,0 C 11,3 km/h (2 Bft)
13.06.2016 01:36 13,0 C 94 % 1004,6 hPa 0,0 l/m 6,7 km/h (2 Bft) NO 49 0 min 0 W/m 12,1 C 12,8 C 14,5 km/h (3 Bft)
13.06.2016 01:39 12,9 C 94 % 1004,6 hPa 0,0 l/m 5,8 km/h (2 Bft) O 90 0 min 0 W/m 12,0 C 12,9 C 12,9 km/h (3 Bft)
13.06.2016 01:42 12,9 C 94 % 1004,6 hPa 0,0 l/m 4,7 km/h (1 Bft) NO 50 0 min 0 W/m 12,0 C 12,9 C 11,3 km/h (2 Bft)
13.06.2016 01:45 12,9 C 94 % 1004,5 hPa 0,0 l/m 4,9 km/h (1 Bft) O-SO 118 0 min 0 W/m 12,0 C 12,9 C 11,3 km/h (2 Bft)
13.06.2016 01:48 12,9 C 94 % 1004,5 hPa 0,2 l/m 4,7 km/h (1 Bft) O-SO 105 0 min 0 W/m 12,0 C 12,9 C 11,3 km/h (2 Bft)
13.06.2016 01:51 12,9 C 95 % 1004,5 hPa 0,0 l/m 6,7 km/h (2 Bft) O 91 0 min 0 W/m 12,1 C 12,7 C 14,5 km/h (3 Bft)
13.06.2016 01:54 12,9 C 95 % 1004,4 hPa 0,0 l/m 5,7 km/h (2 Bft) SO 145 0 min 0 W/m 12,1 C 12,9 C 9,7 km/h (2 Bft)
13.06.2016 01:57 12,8 C 95 % 1004,4 hPa 0,0 l/m 5,8 km/h (2 Bft) SO 127 0 min 0 W/m 12,0 C 12,8 C 14,5 km/h (3 Bft)
13.06.2016 02:00 12,8 C 95 % 1004,3 hPa 0,0 l/m 3,6 km/h (1 Bft) O-SO 119 0 min 0 W/m 12,0 C 12,8 C 8,0 km/h (2 Bft)
13.06.2016 02:03 12,8 C 95 % 1004,3 hPa 0,0 l/m 4,5 km/h (1 Bft) SO 130 0 min 0 W/m 12,0 C 12,8 C 12,9 km/h (3 Bft)
13.06.2016 02:06 12,8 C 95 % 1004,3 hPa 0,0 l/m 4,5 km/h (1 Bft) SO 138 0 min 0 W/m 12,0 C 12,8 C 8,0 km/h (2 Bft)
13.06.2016 02:09 12,8 C 95 % 1004,3 hPa 0,0 l/m 5,5 km/h (2 Bft) W 278 0 min 0 W/m 12,0 C 12,8 C 11,3 km/h (2 Bft)
13.06.2016 02:12 12,8 C 95 % 1004,3 hPa 0,0 l/m 4,0 km/h (1 Bft) S-SO 155 0 min 0 W/m 12,0 C 12,8 C 11,3 km/h (2 Bft)
13.06.2016 02:15 12,8 C 95 % 1004,2 hPa 0,2 l/m 5,6 km/h (2 Bft) S-SO 151 0 min 0 W/m 12,0 C 12,8 C 11,3 km/h (2 Bft)
13.06.2016 02:18 12,8 C 95 % 1004,1 hPa 0,0 l/m 3,4 km/h (1 Bft) N 5 0 min 0 W/m 12,0 C 12,8 C 9,7 km/h (2 Bft)
13.06.2016 02:21 12,8 C 95 % 1004,2 hPa 0,0 l/m 6,1 km/h (2 Bft) SO 141 0 min 0 W/m 12,0 C 12,8 C 16,1 km/h (3 Bft)
13.06.2016 02:24 12,8 C 95 % 1004,2 hPa 0,0 l/m 4,1 km/h (1 Bft) O-SO 121 0 min 0 W/m 12,0 C 12,8 C 8,0 km/h (2 Bft)
13.06.2016 02:27 12,8 C 95 % 1004,2 hPa 0,0 l/m 5,4 km/h (2 Bft) SO 126 0 min 0 W/m 12,0 C 12,8 C 12,9 km/h (3 Bft)
13.06.2016 02:30 12,8 C 95 % 1004,2 hPa 0,0 l/m 5,2 km/h (1 Bft) SO 142 0 min 0 W/m 12,0 C 12,8 C 17,7 km/h (3 Bft)
13.06.2016 02:33 12,8 C 95 % 1004,1 hPa 0,0 l/m 5,4 km/h (2 Bft) SO 130 0 min 0 W/m 12,0 C 12,8 C 14,5 km/h (3 Bft)
13.06.2016 02:36 12,7 C 95 % 1004,1 hPa 0,0 l/m 5,5 km/h (2 Bft) O-SO 111 0 min 0 W/m 11,9 C 12,7 C 14,5 km/h (3 Bft)
13.06.2016 02:39 12,7 C 95 % 1004,1 hPa 0,0 l/m 6,0 km/h (2 Bft) O 86 0 min 0 W/m 11,9 C 12,7 C 16,1 km/h (3 Bft)
13.06.2016 02:42 12,7 C 95 % 1004,1 hPa 0,0 l/m 4,8 km/h (1 Bft) SO 141 0 min 0 W/m 11,9 C 12,7 C 12,9 km/h (3 Bft)
13.06.2016 02:45 12,7 C 95 % 1004,1 hPa 0,0 l/m 3,7 km/h (1 Bft) O-SO 109 0 min 0 W/m 11,9 C 12,7 C 9,7 km/h (2 Bft)
13.06.2016 02:48 12,7 C 95 % 1004,0 hPa 0,0 l/m 4,5 km/h (1 Bft) S-SO 148 0 min 0 W/m 11,9 C 12,7 C 11,3 km/h (2 Bft)
13.06.2016 02:51 12,7 C 95 % 1004,0 hPa 0,2 l/m 4,7 km/h (1 Bft) O-SO 123 0 min 0 W/m 11,9 C 12,7 C 20,9 km/h (4 Bft)
13.06.2016 02:54 12,7 C 95 % 1004,0 hPa 0,0 l/m 4,7 km/h (1 Bft) S 190 0 min 0 W/m 11,9 C 12,7 C 11,3 km/h (2 Bft)
13.06.2016 02:57 12,7 C 95 % 1004,0 hPa 0,0 l/m 7,7 km/h (2 Bft) O-SO 107 0 min 0 W/m 11,9 C 11,9 C 16,1 km/h (3 Bft)
13.06.2016 03:00 12,7 C 95 % 1004,0 hPa 0,0 l/m 5,3 km/h (1 Bft) O-NO 77 0 min 0 W/m 11,9 C 12,7 C 14,5 km/h (3 Bft)
13.06.2016 03:03 12,7 C 95 % 1004,0 hPa 0,0 l/m 4,6 km/h (1 Bft) SO 144 0 min 0 W/m 11,9 C 12,7 C 9,7 km/h (2 Bft)
13.06.2016 03:06 12,7 C 96 % 1003,9 hPa 0,0 l/m 3,8 km/h (1 Bft) SO 142 0 min 0 W/m 12,1 C 12,7 C 9,7 km/h (2 Bft)
13.06.2016 03:09 12,7 C 96 % 1003,9 hPa 0,0 l/m 3,3 km/h (1 Bft) O 88 0 min 0 W/m 12,1 C 12,7 C 6,4 km/h (2 Bft)
13.06.2016 03:12 12,7 C 96 % 1003,8 hPa 0,0 l/m 4,1 km/h (1 Bft) O 97 0 min 0 W/m 12,1 C 12,7 C 6,4 km/h (2 Bft)
13.06.2016 03:15 12,7 C 96 % 1003,8 hPa 0,0 l/m 4,6 km/h (1 Bft) O-SO 119 0 min 0 W/m 12,1 C 12,7 C 12,9 km/h (3 Bft)
13.06.2016 03:18 12,6 C 96 % 1003,8 hPa 0,0 l/m 4,1 km/h (1 Bft) SO 144 0 min 0 W/m 12,0 C 12,6 C 11,3 km/h (2 Bft)
13.06.2016 03:21 12,6 C 96 % 1003,8 hPa 0,0 l/m 4,6 km/h (1 Bft) O 89 0 min 0 W/m 12,0 C 12,6 C 9,7 km/h (2 Bft)
13.06.2016 03:24 12,6 C 96 % 1003,7 hPa 0,0 l/m 4,7 km/h (1 Bft) O-SO 112 0 min 0 W/m 12,0 C 12,6 C 14,5 km/h (3 Bft)
13.06.2016 03:27 12,6 C 96 % 1003,7 hPa 0,0 l/m 3,1 km/h (1 Bft) O-SO 104 0 min 0 W/m 12,0 C 12,6 C 9,7 km/h (2 Bft)
13.06.2016 03:30 12,6 C 96 % 1003,7 hPa 0,0 l/m 3,7 km/h (1 Bft) O-SO 103 0 min 0 W/m 12,0 C 12,6 C 9,7 km/h (2 Bft)
13.06.2016 03:33 12,6 C 96 % 1003,7 hPa 0,0 l/m 3,5 km/h (1 Bft) O 84 0 min 0 W/m 12,0 C 12,6 C 6,4 km/h (2 Bft)
13.06.2016 03:36 12,6 C 96 % 1003,7 hPa 0,0 l/m 5,3 km/h (1 Bft) O-SO 118 0 min 0 W/m 12,0 C 12,6 C 12,9 km/h (3 Bft)
13.06.2016 03:39 12,6 C 96 % 1003,6 hPa 0,0 l/m 4,1 km/h (1 Bft) O-NO 63 0 min 0 W/m 12,0 C 12,6 C 11,3 km/h (2 Bft)
13.06.2016 03:42 12,6 C 96 % 1003,6 hPa 0,0 l/m 3,2 km/h (1 Bft) SO 136 0 min 0 W/m 12,0 C 12,6 C 6,4 km/h (2 Bft)
13.06.2016 03:45 12,6 C 96 % 1003,6 hPa 0,0 l/m 1,7 km/h (1 Bft) O-SO 112 0 min 0 W/m 12,0 C 12,6 C 6,4 km/h (2 Bft)
13.06.2016 03:48 12,6 C 96 % 1003,5 hPa 0,0 l/m 4,7 km/h (1 Bft) S 173 0 min 0 W/m 12,0 C 12,6 C 9,7 km/h (2 Bft)
13.06.2016 03:51 12,6 C 96 % 1003,5 hPa 0,0 l/m 2,4 km/h (1 Bft) SO 139 0 min 0 W/m 12,0 C 12,6 C 8,0 km/h (2 Bft)
13.06.2016 03:54 12,6 C 96 % 1003,5 hPa 0,2 l/m 4,3 km/h (1 Bft) O-SO 123 0 min 0 W/m 12,0 C 12,6 C 14,5 km/h (3 Bft)
13.06.2016 03:57 12,6 C 96 % 1003,5 hPa 0,0 l/m 2,8 km/h (1 Bft) S-SO 159 0 min 0 W/m 12,0 C 12,6 C 6,4 km/h (2 Bft)
13.06.2016 04:00 12,6 C 96 % 1003,4 hPa 0,0 l/m 3,5 km/h (1 Bft) SO 144 0 min 0 W/m 12,0 C 12,6 C 8,0 km/h (2 Bft)
13.06.2016 04:03 12,7 C 96 % 1003,4 hPa 0,0 l/m 4,6 km/h (1 Bft) S-SO 148 0 min 0 W/m 12,1 C 12,7 C 11,3 km/h (2 Bft)
13.06.2016 04:06 12,7 C 96 % 1003,4 hPa 0,0 l/m 3,9 km/h (1 Bft) O-SO 112 0 min 0 W/m 12,1 C 12,7 C 8,0 km/h (2 Bft)
13.06.2016 04:09 12,7 C 96 % 1003,3 hPa 0,0 l/m 3,4 km/h (1 Bft) N-NW 335 0 min 0 W/m 12,1 C 12,7 C 9,7 km/h (2 Bft)
13.06.2016 04:12 12,7 C 96 % 1003,3 hPa 0,2 l/m 4,7 km/h (1 Bft) O 95 0 min 0 W/m 12,1 C 12,7 C 11,3 km/h (2 Bft)
13.06.2016 04:15 12,7 C 96 % 1003,3 hPa 0,0 l/m 3,7 km/h (1 Bft) O-SO 112 0 min 0 W/m 12,1 C 12,7 C 9,7 km/h (2 Bft)
13.06.2016 04:18 12,7 C 96 % 1003,3 hPa 0,0 l/m 5,6 km/h (2 Bft) O-SO 105 0 min 0 W/m 12,1 C 12,7 C 9,7 km/h (2 Bft)
13.06.2016 04:21 12,7 C 96 % 1003,2 hPa 0,0 l/m 3,4 km/h (1 Bft) NO 48 0 min 0 W/m 12,1 C 12,7 C 4,8 km/h (1 Bft)
13.06.2016 04:24 12,7 C 96 % 1003,2 hPa 0,0 l/m 4,3 km/h (1 Bft) SO 139 0 min 0 W/m 12,1 C 12,7 C 12,9 km/h (3 Bft)
13.06.2016 04:27 12,7 C 96 % 1003,2 hPa 0,0 l/m 4,4 km/h (1 Bft) S-SO 168 0 min 0 W/m 12,1 C 12,7 C 9,7 km/h (2 Bft)
13.06.2016 04:30 12,7 C 96 % 1003,1 hPa 0,0 l/m 6,4 km/h (2 Bft) S-SO 149 0 min 0 W/m 12,1 C 12,7 C 11,3 km/h (2 Bft)
13.06.2016 04:33 12,7 C 96 % 1003,1 hPa 0,0 l/m 3,3 km/h (1 Bft) O 89 0 min 0 W/m 12,1 C 12,7 C 6,4 km/h (2 Bft)
13.06.2016 04:36 12,7 C 96 % 1003,1 hPa 0,2 l/m 3,9 km/h (1 Bft) O 98 0 min 0 W/m 12,1 C 12,7 C 9,7 km/h (2 Bft)
13.06.2016 04:39 12,7 C 96 % 1003,1 hPa 0,0 l/m 3,7 km/h (1 Bft) O 92 0 min 0 W/m 12,1 C 12,7 C 11,3 km/h (2 Bft)
13.06.2016 04:42 12,8 C 96 % 1003,0 hPa 0,0 l/m 2,3 km/h (1 Bft) SO 126 0 min 0 W/m 12,2 C 12,8 C 4,8 km/h (1 Bft)
13.06.2016 04:45 12,7 C 96 % 1003,0 hPa 0,2 l/m 4,5 km/h (1 Bft) O-SO 109 0 min 0 W/m 12,1 C 12,7 C 12,9 km/h (3 Bft)
13.06.2016 04:48 12,7 C 96 % 1003,0 hPa 0,0 l/m 3,5 km/h (1 Bft) O 84 0 min 0 W/m 12,1 C 12,7 C 6,4 km/h (2 Bft)
13.06.2016 04:51 12,8 C 96 % 1002,9 hPa 0,0 l/m 2,8 km/h (1 Bft) O-SO 113 0 min 0 W/m 12,2 C 12,8 C 9,7 km/h (2 Bft)
13.06.2016 04:54 12,8 C 96 % 1002,9 hPa 0,0 l/m 2,6 km/h (1 Bft) O 86 0 min 0 W/m 12,2 C 12,8 C 6,4 km/h (2 Bft)
13.06.2016 04:57 12,8 C 96 % 1002,9 hPa 0,2 l/m 2,7 km/h (1 Bft) O-SO 115 0 min 0 W/m 12,2 C 12,8 C 12,9 km/h (3 Bft)
13.06.2016 05:00 12,8 C 96 % 1002,9 hPa 0,0 l/m 3,3 km/h (1 Bft) O-NO 74 0 min 0 W/m 12,2 C 12,8 C 6,4 km/h (2 Bft)
13.06.2016 05:03 12,8 C 96 % 1002,8 hPa 0,0 l/m 3,7 km/h (1 Bft) N-NO 26 0 min 0 W/m 12,2 C 12,8 C 8,0 km/h (2 Bft)
13.06.2016 05:06 12,8 C 96 % 1002,8 hPa 0,2 l/m 2,3 km/h (1 Bft) N-NO 33 0 min 0 W/m 12,2 C 12,8 C 6,4 km/h (2 Bft)
13.06.2016 05:09 12,8 C 96 % 1002,7 hPa 0,0 l/m 4,4 km/h (1 Bft) O-SO 121 0 min 0 W/m 12,2 C 12,8 C 8,0 km/h (2 Bft)
13.06.2016 05:12 12,8 C 96 % 1002,7 hPa 0,0 l/m 5,5 km/h (2 Bft) S-SO 150 0 min 0 W/m 12,2 C 12,8 C 11,3 km/h (2 Bft)
13.06.2016 05:15 12,8 C 96 % 1002,7 hPa 0,0 l/m 4,5 km/h (1 Bft) O-SO 115 0 min 0 W/m 12,2 C 12,8 C 11,3 km/h (2 Bft)
13.06.2016 05:18 12,8 C 97 % 1002,7 hPa 0,0 l/m 3,6 km/h (1 Bft) NO 48 0 min 0 W/m 12,3 C 12,8 C 12,9 km/h (3 Bft)
13.06.2016 05:21 12,8 C 97 % 1002,7 hPa 0,0 l/m 3,0 km/h (1 Bft) SO 146 0 min 5 W/m 12,3 C 12,8 C 6,4 km/h (2 Bft)
13.06.2016 05:24 12,8 C 97 % 1002,6 hPa 0,0 l/m 3,7 km/h (1 Bft) O-SO 106 0 min 0 W/m 12,3 C 12,8 C 11,3 km/h (2 Bft)
13.06.2016 05:27 12,8 C 97 % 1002,6 hPa 0,0 l/m 3,8 km/h (1 Bft) SO 142 0 min 0 W/m 12,3 C 12,8 C 8,0 km/h (2 Bft)
13.06.2016 05:30 12,9 C 97 % 1002,6 hPa 0,0 l/m 3,3 km/h (1 Bft) SO 138 0 min 0 W/m 12,4 C 12,9 C 11,3 km/h (2 Bft)
13.06.2016 05:33 12,9 C 96 % 1002,5 hPa 0,0 l/m 4,2 km/h (1 Bft) N 355 0 min 0 W/m 12,3 C 12,9 C 11,3 km/h (2 Bft)
13.06.2016 05:36 12,9 C 96 % 1002,6 hPa 0,0 l/m 4,2 km/h (1 Bft) S-SO 167 0 min 0 W/m 12,3 C 12,9 C 12,9 km/h (3 Bft)
13.06.2016 05:39 12,9 C 96 % 1002,5 hPa 0,0 l/m 5,4 km/h (2 Bft) S-SO 157 0 min 0 W/m 12,3 C 12,9 C 14,5 km/h (3 Bft)
13.06.2016 05:42 12,9 C 96 % 1002,5 hPa 0,0 l/m 4,6 km/h (1 Bft) O 90 0 min 0 W/m 12,3 C 12,9 C 16,1 km/h (3 Bft)
13.06.2016 05:45 12,9 C 96 % 1002,5 hPa 0,0 l/m 2,9 km/h (1 Bft) O-NO 78 0 min 0 W/m 12,3 C 12,9 C 4,8 km/h (1 Bft)
13.06.2016 05:48 12,9 C 96 % 1002,5 hPa 0,0 l/m 3,6 km/h (1 Bft) SO 128 0 min 0 W/m 12,3 C 12,9 C 9,7 km/h (2 Bft)
13.06.2016 05:51 12,9 C 96 % 1002,4 hPa 0,0 l/m 4,5 km/h (1 Bft) O-SO 113 0 min 0 W/m 12,3 C 12,9 C 14,5 km/h (3 Bft)
13.06.2016 05:54 12,9 C 96 % 1002,4 hPa 0,0 l/m 3,7 km/h (1 Bft) SO 134 0 min 0 W/m 12,3 C 12,9 C 9,7 km/h (2 Bft)
13.06.2016 05:57 12,9 C 96 % 1002,4 hPa 0,0 l/m 3,3 km/h (1 Bft) SO 132 0 min 0 W/m 12,3 C 12,9 C 6,4 km/h (2 Bft)
13.06.2016 06:00 12,9 C 96 % 1002,4 hPa 0,0 l/m 3,1 km/h (1 Bft) S-SW 197 0 min 0 W/m 12,3 C 12,9 C 9,7 km/h (2 Bft)
13.06.2016 06:03 13,0 C 96 % 1002,3 hPa 0,2 l/m 4,9 km/h (1 Bft) O-SO 107 0 min 0 W/m 12,4 C 13,0 C 12,9 km/h (3 Bft)
13.06.2016 06:06 13,0 C 96 % 1002,3 hPa 0,0 l/m 2,5 km/h (1 Bft) O 88 0 min 0 W/m 12,4 C 13,0 C 6,4 km/h (2 Bft)
13.06.2016 06:09 13,0 C 96 % 1002,3 hPa 0,2 l/m 3,5 km/h (1 Bft) N-NW 342 0 min 0 W/m 12,4 C 13,0 C 16,1 km/h (3 Bft)
13.06.2016 06:12 13,0 C 96 % 1002,3 hPa 0,0 l/m 4,0 km/h (1 Bft) N 5 0 min 0 W/m 12,4 C 13,0 C 14,5 km/h (3 Bft)
13.06.2016 06:15 13,0 C 96 % 1002,3 hPa 0,2 l/m 5,7 km/h (2 Bft) N 360 0 min 0 W/m 12,4 C 13,0 C 17,7 km/h (3 Bft)
13.06.2016 06:18 12,9 C 96 % 1002,2 hPa 0,0 l/m 5,2 km/h (1 Bft) SO 138 0 min 0 W/m 12,3 C 12,9 C 11,3 km/h (2 Bft)
13.06.2016 06:21 13,0 C 96 % 1002,2 hPa 0,0 l/m 4,9 km/h (1 Bft) O 88 0 min 0 W/m 12,4 C 13,0 C 11,3 km/h (2 Bft)
13.06.2016 06:24 13,0 C 96 % 1002,2 hPa 0,2 l/m 5,3 km/h (1 Bft) O 98 0 min 5 W/m 12,4 C 13,0 C 12,9 km/h (3 Bft)
13.06.2016 06:27 13,0 C 96 % 1002,2 hPa 0,0 l/m 5,3 km/h (1 Bft) O-SO 119 0 min 5 W/m 12,4 C 13,0 C 11,3 km/h (2 Bft)
13.06.2016 06:30 13,0 C 96 % 1002,1 hPa 0,0 l/m 6,1 km/h (2 Bft) O-SO 117 0 min 5 W/m 12,4 C 13,0 C 16,1 km/h (3 Bft)
13.06.2016 06:33 13,0 C 96 % 1002,1 hPa 0,0 l/m 5,7 km/h (2 Bft) O 87 0 min 7 W/m 12,4 C 13,0 C 9,7 km/h (2 Bft)
13.06.2016 06:36 13,0 C 96 % 1002,1 hPa 0,2 l/m 3,1 km/h (1 Bft) O-SO 104 0 min 9 W/m 12,4 C 13,0 C 9,7 km/h (2 Bft)
13.06.2016 06:39 12,9 C 96 % 1002,0 hPa 0,0 l/m 5,2 km/h (1 Bft) S-SO 164 0 min 7 W/m 12,3 C 12,9 C 11,3 km/h (2 Bft)
13.06.2016 06:42 12,9 C 96 % 1002,0 hPa 0,0 l/m 3,6 km/h (1 Bft) S-SO 164 0 min 7 W/m 12,3 C 12,9 C 9,7 km/h (2 Bft)
13.06.2016 06:45 12,9 C 96 % 1002,0 hPa 0,0 l/m 4,3 km/h (1 Bft) S-SO 163 0 min 7 W/m 12,3 C 12,9 C 14,5 km/h (3 Bft)
13.06.2016 06:48 13,0 C 96 % 1002,0 hPa 0,0 l/m 3,7 km/h (1 Bft) S-SO 159 0 min 7 W/m 12,4 C 13,0 C 9,7 km/h (2 Bft)
13.06.2016 06:51 13,0 C 96 % 1002,0 hPa 0,0 l/m 5,5 km/h (2 Bft) O-SO 117 0 min 9 W/m 12,4 C 13,0 C 14,5 km/h (3 Bft)
13.06.2016 06:54 13,0 C 96 % 1002,0 hPa 0,0 l/m 3,0 km/h (1 Bft) SO 140 0 min 9 W/m 12,4 C 13,0 C 6,4 km/h (2 Bft)
13.06.2016 06:57 13,0 C 96 % 1002,0 hPa 0,2 l/m 3,3 km/h (1 Bft) N-NO 32 0 min 11 W/m 12,4 C 13,0 C 9,7 km/h (2 Bft)
13.06.2016 07:00 13,0 C 96 % 1002,0 hPa 0,0 l/m 5,1 km/h (1 Bft) O 82 0 min 11 W/m 12,4 C 13,0 C 11,3 km/h (2 Bft)
13.06.2016 07:03 13,0 C 96 % 1002,0 hPa 0,0 l/m 4,7 km/h (1 Bft) S-SO 155 0 min 12 W/m 12,4 C 13,0 C 12,9 km/h (3 Bft)
13.06.2016 07:06 13,0 C 96 % 1001,9 hPa 0,0 l/m 4,8 km/h (1 Bft) S 170 0 min 12 W/m 12,4 C 13,0 C 8,0 km/h (2 Bft)
13.06.2016 07:09 13,0 C 96 % 1001,9 hPa 0,0 l/m 5,7 km/h (2 Bft) O-SO 114 0 min 12 W/m 12,4 C 13,0 C 14,5 km/h (3 Bft)
13.06.2016 07:12 13,0 C 96 % 1001,9 hPa 0,0 l/m 4,8 km/h (1 Bft) NO 54 0 min 12 W/m 12,4 C 13,0 C 12,9 km/h (3 Bft)
13.06.2016 07:15 13,0 C 96 % 1001,9 hPa 0,0 l/m 5,5 km/h (2 Bft) O 92 0 min 12 W/m 12,4 C 13,0 C 11,3 km/h (2 Bft)
13.06.2016 07:18 13,0 C 96 % 1001,9 hPa 0,0 l/m 4,5 km/h (1 Bft) SO 125 0 min 18 W/m 12,4 C 13,0 C 12,9 km/h (3 Bft)
13.06.2016 07:21 13,0 C 96 % 1001,8 hPa 0,2 l/m 5,1 km/h (1 Bft) SO 145 0 min 16 W/m 12,4 C 13,0 C 12,9 km/h (3 Bft)
13.06.2016 07:24 13,1 C 96 % 1001,8 hPa 0,0 l/m 6,0 km/h (2 Bft) O-SO 103 0 min 16 W/m 12,5 C 13,1 C 14,5 km/h (3 Bft)
13.06.2016 07:27 13,1 C 96 % 1001,8 hPa 0,0 l/m 4,2 km/h (1 Bft) O 95 0 min 16 W/m 12,5 C 13,1 C 12,9 km/h (3 Bft)
13.06.2016 07:30 13,1 C 97 % 1001,8 hPa 0,2 l/m 3,9 km/h (1 Bft) S-SO 148 0 min 18 W/m 12,6 C 13,1 C 8,0 km/h (2 Bft)
13.06.2016 07:33 13,1 C 96 % 1001,8 hPa 0,0 l/m 4,2 km/h (1 Bft) S-SO 157 0 min 16 W/m 12,5 C 13,1 C 11,3 km/h (2 Bft)
13.06.2016 07:36 13,1 C 96 % 1001,8 hPa 0,0 l/m 3,7 km/h (1 Bft) SO 142 0 min 18 W/m 12,5 C 13,1 C 11,3 km/h (2 Bft)
13.06.2016 07:39 13,1 C 97 % 1001,8 hPa 0,2 l/m 4,3 km/h (1 Bft) S-SO 159 0 min 14 W/m 12,6 C 13,1 C 11,3 km/h (2 Bft)
13.06.2016 07:42 13,1 C 97 % 1001,8 hPa 0,0 l/m 5,4 km/h (2 Bft) SO 144 0 min 14 W/m 12,6 C 13,1 C 12,9 km/h (3 Bft)
13.06.2016 07:45 13,1 C 96 % 1001,7 hPa 0,0 l/m 5,4 km/h (2 Bft) SO 142 0 min 14 W/m 12,5 C 13,1 C 12,9 km/h (3 Bft)
13.06.2016 07:48 13,1 C 96 % 1001,7 hPa 0,2 l/m 4,1 km/h (1 Bft) O-SO 108 0 min 12 W/m 12,5 C 13,1 C 9,7 km/h (2 Bft)
13.06.2016 07:51 13,1 C 97 % 1001,7 hPa 0,2 l/m 3,2 km/h (1 Bft) SO 140 0 min 14 W/m 12,6 C 13,1 C 6,4 km/h (2 Bft)
13.06.2016 07:54 13,1 C 96 % 1001,7 hPa 0,0 l/m 4,2 km/h (1 Bft) SO 124 0 min 14 W/m 12,5 C 13,1 C 9,7 km/h (2 Bft)
13.06.2016 07:57 13,1 C 96 % 1001,7 hPa 0,2 l/m 4,7 km/h (1 Bft) O-SO 107 0 min 18 W/m 12,5 C 13,1 C 11,3 km/h (2 Bft)
13.06.2016 08:00 13,1 C 97 % 1001,7 hPa 0,0 l/m 3,9 km/h (1 Bft) SO 142 0 min 25 W/m 12,6 C 13,1 C 6,4 km/h (2 Bft)
13.06.2016 08:03 13,1 C 96 % 1001,6 hPa 0,0 l/m 4,9 km/h (1 Bft) S-SO 148 0 min 28 W/m 12,5 C 13,1 C 11,3 km/h (2 Bft)
13.06.2016 08:06 13,1 C 96 % 1001,6 hPa 0,0 l/m 5,7 km/h (2 Bft) S-SO 152 0 min 30 W/m 12,5 C 13,1 C 12,9 km/h (3 Bft)
13.06.2016 08:09 13,1 C 96 % 1001,6 hPa 0,0 l/m 3,1 km/h (1 Bft) SO 128 0 min 30 W/m 12,5 C 13,1 C 6,4 km/h (2 Bft)
13.06.2016 08:12 13,1 C 96 % 1001,6 hPa 0,0 l/m 4,4 km/h (1 Bft) O-SO 107 0 min 32 W/m 12,5 C 13,1 C 14,5 km/h (3 Bft)
13.06.2016 08:15 13,2 C 97 % 1001,6 hPa 0,2 l/m 3,7 km/h (1 Bft) S 171 0 min 39 W/m 12,7 C 13,2 C 9,7 km/h (2 Bft)
13.06.2016 08:18 13,2 C 96 % 1001,6 hPa 0,0 l/m 3,8 km/h (1 Bft) S-SO 148 0 min 33 W/m 12,6 C 13,2 C 9,7 km/h (2 Bft)
13.06.2016 08:21 13,2 C 96 % 1001,6 hPa 0,0 l/m 3,0 km/h (1 Bft) S-SO 158 0 min 42 W/m 12,6 C 13,2 C 8,0 km/h (2 Bft)
13.06.2016 08:24 13,2 C 97 % 1001,6 hPa 0,0 l/m 3,4 km/h (1 Bft) O-SO 107 0 min 40 W/m 12,7 C 13,2 C 12,9 km/h (3 Bft)
13.06.2016 08:27 13,2 C 96 % 1001,5 hPa 0,2 l/m 4,8 km/h (1 Bft) O-SO 122 0 min 42 W/m 12,6 C 13,2 C 11,3 km/h (2 Bft)
13.06.2016 08:30 13,2 C 96 % 1001,6 hPa 0,0 l/m 2,4 km/h (1 Bft) O 94 0 min 35 W/m 12,6 C 13,2 C 8,0 km/h (2 Bft)
13.06.2016 08:33 13,2 C 96 % 1001,6 hPa 0,0 l/m 3,7 km/h (1 Bft) S-SO 156 0 min 28 W/m 12,6 C 13,2 C 6,4 km/h (2 Bft)
13.06.2016 08:36 13,2 C 97 % 1001,5 hPa 0,0 l/m 2,1 km/h (1 Bft) O-SO 109 0 min 37 W/m 12,7 C 13,2 C 4,8 km/h (1 Bft)
13.06.2016 08:39 13,3 C 96 % 1001,5 hPa 0,0 l/m 4,5 km/h (1 Bft) SO 126 0 min 33 W/m 12,7 C 13,3 C 14,5 km/h (3 Bft)
13.06.2016 08:42 13,2 C 96 % 1001,5 hPa 0,2 l/m 3,1 km/h (1 Bft) O-SO 117 0 min 40 W/m 12,6 C 13,2 C 8,0 km/h (2 Bft)
13.06.2016 08:45 13,2 C 96 % 1001,5 hPa 0,0 l/m 4,0 km/h (1 Bft) O-SO 121 0 min 40 W/m 12,6 C 13,2 C 9,7 km/h (2 Bft)
13.06.2016 08:48 13,2 C 96 % 1001,5 hPa 0,2 l/m 3,8 km/h (1 Bft) O-SO 111 0 min 35 W/m 12,6 C 13,2 C 9,7 km/h (2 Bft)
13.06.2016 08:51 13,2 C 96 % 1001,5 hPa 0,0 l/m 4,1 km/h (1 Bft) SO 125 0 min 42 W/m 12,6 C 13,2 C 11,3 km/h (2 Bft)
13.06.2016 08:54 13,3 C 96 % 1001,5 hPa 0,2 l/m 3,4 km/h (1 Bft) O-SO 120 0 min 53 W/m 12,7 C 13,3 C 8,0 km/h (2 Bft)
13.06.2016 08:57 13,3 C 96 % 1001,5 hPa 0,0 l/m 5,2 km/h (1 Bft) O-SO 102 0 min 58 W/m 12,7 C 13,3 C 12,9 km/h (3 Bft)
13.06.2016 09:00 13,3 C 96 % 1001,4 hPa 0,0 l/m 4,1 km/h (1 Bft) O-SO 119 0 min 60 W/m 12,7 C 13,3 C 11,3 km/h (2 Bft)
13.06.2016 09:03 13,3 C 96 % 1001,4 hPa 0,2 l/m 5,6 km/h (2 Bft) SO 139 0 min 54 W/m 12,7 C 13,3 C 14,5 km/h (3 Bft)
13.06.2016 09:06 13,3 C 96 % 1001,3 hPa 0,0 l/m 2,2 km/h (1 Bft) O-SO 105 0 min 62 W/m 12,7 C 13,3 C 6,4 km/h (2 Bft)
13.06.2016 09:09 13,3 C 96 % 1001,3 hPa 0,0 l/m 3,3 km/h (1 Bft) O-SO 111 0 min 69 W/m 12,7 C 13,3 C 12,9 km/h (3 Bft)
13.06.2016 09:12 13,4 C 97 % 1001,3 hPa 0,0 l/m 4,5 km/h (1 Bft) O 86 0 min 63 W/m 12,9 C 13,4 C 11,3 km/h (2 Bft)
13.06.2016 09:15 13,4 C 96 % 1001,3 hPa 0,0 l/m 3,9 km/h (1 Bft) O 85 0 min 70 W/m 12,8 C 13,4 C 8,0 km/h (2 Bft)
13.06.2016 09:18 13,4 C 96 % 1001,3 hPa 0,0 l/m 4,1 km/h (1 Bft) O 88 0 min 74 W/m 12,8 C 13,4 C 9,7 km/h (2 Bft)
13.06.2016 09:21 13,4 C 96 % 1001,3 hPa 0,0 l/m 3,3 km/h (1 Bft) O 94 0 min 67 W/m 12,8 C 13,4 C 12,9 km/h (3 Bft)
13.06.2016 09:24 13,4 C 96 % 1001,3 hPa 0,0 l/m 4,0 km/h (1 Bft) O-SO 105 0 min 56 W/m 12,8 C 13,4 C 8,0 km/h (2 Bft)
13.06.2016 09:27 13,4 C 96 % 1001,3 hPa 0,0 l/m 2,7 km/h (1 Bft) S 188 0 min 60 W/m 12,8 C 13,4 C 9,7 km/h (2 Bft)
13.06.2016 09:30 13,5 C 97 % 1001,2 hPa 0,0 l/m 4,3 km/h (1 Bft) S 180 0 min 63 W/m 13,0 C 13,5 C 11,3 km/h (2 Bft)
13.06.2016 09:33 13,5 C 96 % 1001,2 hPa 0,0 l/m 4,6 km/h (1 Bft) O 80 0 min 58 W/m 12,9 C 13,5 C 8,0 km/h (2 Bft)
13.06.2016 09:36 13,5 C 96 % 1001,2 hPa 0,0 l/m 2,4 km/h (1 Bft) O 88 0 min 70 W/m 12,9 C 13,5 C 8,0 km/h (2 Bft)
13.06.2016 09:39 13,6 C 96 % 1001,2 hPa 0,0 l/m 3,8 km/h (1 Bft) O 86 0 min 74 W/m 13,0 C 13,6 C 11,3 km/h (2 Bft)
13.06.2016 09:42 13,7 C 96 % 1001,2 hPa 0,0 l/m 4,3 km/h (1 Bft) O-SO 107 0 min 67 W/m 13,1 C 13,7 C 11,3 km/h (2 Bft)
13.06.2016 09:45 13,6 C 96 % 1001,2 hPa 0,0 l/m 3,4 km/h (1 Bft) SO 145 0 min 67 W/m 13,0 C 13,6 C 9,7 km/h (2 Bft)
13.06.2016 09:48 13,5 C 96 % 1001,2 hPa 0,0 l/m 5,8 km/h (2 Bft) O-NO 59 0 min 69 W/m 12,9 C 13,5 C 16,1 km/h (3 Bft)
13.06.2016 09:51 13,6 C 96 % 1001,2 hPa 0,0 l/m 4,6 km/h (1 Bft) SO 146 0 min 86 W/m 13,0 C 13,6 C 8,0 km/h (2 Bft)
13.06.2016 09:54 13,7 C 96 % 1001,2 hPa 0,0 l/m 4,1 km/h (1 Bft) S-SO 156 0 min 90 W/m 13,1 C 13,7 C 9,7 km/h (2 Bft)
13.06.2016 09:57 13,7 C 96 % 1001,2 hPa 0,0 l/m 2,7 km/h (1 Bft) O-SO 113 0 min 81 W/m 13,1 C 13,7 C 6,4 km/h (2 Bft)
13.06.2016 10:00 13,7 C 96 % 1001,1 hPa 0,0 l/m 4,7 km/h (1 Bft) S-SO 163 0 min 76 W/m 13,1 C 13,7 C 11,3 km/h (2 Bft)
13.06.2016 10:03 13,6 C 96 % 1001,2 hPa 0,0 l/m 5,4 km/h (2 Bft) S-SO 150 0 min 77 W/m 13,0 C 13,6 C 9,7 km/h (2 Bft)
13.06.2016 10:06 13,6 C 96 % 1001,2 hPa 0,0 l/m 3,4 km/h (1 Bft) O 90 0 min 95 W/m 13,0 C 13,6 C 9,7 km/h (2 Bft)
13.06.2016 10:09 13,7 C 96 % 1001,1 hPa 0,0 l/m 6,1 km/h (2 Bft) SO 129 0 min 90 W/m 13,1 C 13,7 C 11,3 km/h (2 Bft)
13.06.2016 10:12 13,6 C 96 % 1001,1 hPa 0,0 l/m 3,5 km/h (1 Bft) SO 139 0 min 88 W/m 13,0 C 13,6 C 12,9 km/h (3 Bft)
13.06.2016 10:15 13,7 C 96 % 1001,1 hPa 0,0 l/m 2,5 km/h (1 Bft) O-SO 120 0 min 93 W/m 13,1 C 13,7 C 6,4 km/h (2 Bft)
13.06.2016 10:18 13,8 C 96 % 1001,0 hPa 0,0 l/m 5,0 km/h (1 Bft) SO 126 0 min 74 W/m 13,2 C 13,8 C 12,9 km/h (3 Bft)
13.06.2016 10:21 13,8 C 96 % 1001,0 hPa 0,0 l/m 2,5 km/h (1 Bft) O-NO 68 0 min 79 W/m 13,2 C 13,8 C 8,0 km/h (2 Bft)
13.06.2016 10:24 13,8 C 96 % 1001,0 hPa 0,0 l/m 4,4 km/h (1 Bft) NO 44 0 min 83 W/m 13,2 C 13,8 C 9,7 km/h (2 Bft)
13.06.2016 10:27 13,8 C 96 % 1001,1 hPa 0,0 l/m 5,4 km/h (2 Bft) S 178 0 min 65 W/m 13,2 C 13,8 C 12,9 km/h (3 Bft)
13.06.2016 10:30 13,7 C 96 % 1001,0 hPa 0,0 l/m 4,5 km/h (1 Bft) O 79 0 min 60 W/m 13,1 C 13,7 C 11,3 km/h (2 Bft)
13.06.2016 10:33 13,7 C 96 % 1001,0 hPa 0,0 l/m 3,2 km/h (1 Bft) O 101 0 min 70 W/m 13,1 C 13,7 C 11,3 km/h (2 Bft)
13.06.2016 10:36 13,7 C 96 % 1001,0 hPa 0,0 l/m 6,1 km/h (2 Bft) SO 130 0 min 79 W/m 13,1 C 13,7 C 14,5 km/h (3 Bft)
13.06.2016 10:39 13,7 C 96 % 1000,9 hPa 0,0 l/m 4,6 km/h (1 Bft) O-SO 112 0 min 84 W/m 13,1 C 13,7 C 11,3 km/h (2 Bft)
13.06.2016 10:42 13,7 C 96 % 1001,0 hPa 0,0 l/m 3,8 km/h (1 Bft) N-NW 336 0 min 90 W/m 13,1 C 13,7 C 9,7 km/h (2 Bft)
13.06.2016 10:45 13,8 C 96 % 1001,0 hPa 0,0 l/m 6,1 km/h (2 Bft) O-SO 107 0 min 95 W/m 13,2 C 13,8 C 12,9 km/h (3 Bft)
13.06.2016 10:48 13,8 C 96 % 1000,9 hPa 0,0 l/m 6,2 km/h (2 Bft) O-NO 59 0 min 95 W/m 13,2 C 13,8 C 14,5 km/h (3 Bft)
13.06.2016 10:51 13,8 C 96 % 1001,0 hPa 0,0 l/m 5,6 km/h (2 Bft) S-SO 163 0 min 102 W/m 13,2 C 13,8 C 14,5 km/h (3 Bft)
13.06.2016 10:54 13,8 C 96 % 1001,0 hPa 0,0 l/m 5,9 km/h (2 Bft) S-SO 155 0 min 107 W/m 13,2 C 13,8 C 11,3 km/h (2 Bft)
13.06.2016 10:57 13,8 C 96 % 1000,9 hPa 0,0 l/m 6,6 km/h (2 Bft) O-SO 119 0 min 114 W/m 13,2 C 13,7 C 14,5 km/h (3 Bft)
13.06.2016 11:00 13,8 C 96 % 1001,0 hPa 0,0 l/m 6,2 km/h (2 Bft) O 87 0 min 123 W/m 13,2 C 13,8 C 14,5 km/h (3 Bft)
13.06.2016 11:03 13,8 C 96 % 1001,0 hPa 0,0 l/m 4,2 km/h (1 Bft) O-SO 122 0 min 102 W/m 13,2 C 13,8 C 8,0 km/h (2 Bft)
13.06.2016 11:06 13,9 C 96 % 1001,0 hPa 0,0 l/m 5,0 km/h (1 Bft) SO 146 0 min 118 W/m 13,3 C 13,9 C 11,3 km/h (2 Bft)
13.06.2016 11:09 14,0 C 96 % 1000,9 hPa 0,0 l/m 4,4 km/h (1 Bft) SO 132 0 min 135 W/m 13,4 C 14,0 C 11,3 km/h (2 Bft)
13.06.2016 11:12 14,0 C 96 % 1000,8 hPa 0,0 l/m 5,1 km/h (1 Bft) W-NW 300 0 min 120 W/m 13,4 C 14,0 C 12,9 km/h (3 Bft)
13.06.2016 11:15 14,1 C 96 % 1000,9 hPa 0,0 l/m 5,4 km/h (2 Bft) S-SO 148 0 min 104 W/m 13,5 C 14,1 C 12,9 km/h (3 Bft)
13.06.2016 11:18 14,1 C 96 % 1000,8 hPa 0,0 l/m 6,2 km/h (2 Bft) O 98 0 min 114 W/m 13,5 C 14,1 C 14,5 km/h (3 Bft)
13.06.2016 11:21 14,0 C 96 % 1000,8 hPa 0,0 l/m 6,5 km/h (2 Bft) S-SO 157 0 min 116 W/m 13,4 C 14,0 C 14,5 km/h (3 Bft)
13.06.2016 11:24 14,1 C 96 % 1000,7 hPa 0,0 l/m 5,0 km/h (1 Bft) S-SO 153 0 min 118 W/m 13,5 C 14,1 C 11,3 km/h (2 Bft)
13.06.2016 11:27 14,1 C 96 % 1000,8 hPa 0,0 l/m 5,9 km/h (2 Bft) SO 140 0 min 141 W/m 13,5 C 14,1 C 14,5 km/h (3 Bft)
13.06.2016 11:30 14,1 C 96 % 1000,7 hPa 0,0 l/m 7,1 km/h (2 Bft) S-SO 156 0 min 123 W/m 13,5 C 13,7 C 16,1 km/h (3 Bft)
13.06.2016 11:33 14,1 C 96 % 1000,7 hPa 0,0 l/m 6,8 km/h (2 Bft) S-SO 150 0 min 130 W/m 13,5 C 13,9 C 16,1 km/h (3 Bft)
13.06.2016 11:36 14,2 C 96 % 1000,7 hPa 0,0 l/m 5,6 km/h (2 Bft) SO 140 0 min 134 W/m 13,6 C 14,2 C 9,7 km/h (2 Bft)
13.06.2016 11:39 14,2 C 96 % 1000,6 hPa 0,0 l/m 5,9 km/h (2 Bft) O 96 0 min 141 W/m 13,6 C 14,2 C 16,1 km/h (3 Bft)
13.06.2016 11:42 14,4 C 96 % 1000,6 hPa 0,0 l/m 4,0 km/h (1 Bft) SO 129 0 min 120 W/m 13,8 C 14,4 C 9,7 km/h (2 Bft)
13.06.2016 11:45 14,5 C 96 % 1000,6 hPa 0,0 l/m 4,1 km/h (1 Bft) SO 134 0 min 105 W/m 13,9 C 14,5 C 6,4 km/h (2 Bft)
13.06.2016 11:48 14,4 C 96 % 1000,6 hPa 0,0 l/m 4,9 km/h (1 Bft) S-SO 161 0 min 98 W/m 13,8 C 14,4 C 11,3 km/h (2 Bft)
13.06.2016 11:51 14,4 C 96 % 1000,6 hPa 0,0 l/m 4,3 km/h (1 Bft) S-SO 148 0 min 105 W/m 13,8 C 14,4 C 9,7 km/h (2 Bft)
13.06.2016 11:54 14,4 C 96 % 1000,6 hPa 0,0 l/m 3,7 km/h (1 Bft) O 96 0 min 93 W/m 13,8 C 14,4 C 9,7 km/h (2 Bft)
13.06.2016 11:57 14,5 C 96 % 1000,6 hPa 0,0 l/m 2,9 km/h (1 Bft) SO 126 0 min 84 W/m 13,9 C 14,5 C 8,0 km/h (2 Bft)
13.06.2016 12:00 14,6 C 96 % 1000,6 hPa 0,0 l/m 3,2 km/h (1 Bft) O-NO 65 0 min 98 W/m 14,0 C 14,6 C 6,4 km/h (2 Bft)
13.06.2016 12:03 14,5 C 96 % 1000,6 hPa 0,0 l/m 3,1 km/h (1 Bft) SO 142 0 min 105 W/m 13,9 C 14,5 C 6,4 km/h (2 Bft)
13.06.2016 12:06 14,6 C 96 % 1000,5 hPa 0,0 l/m 4,7 km/h (1 Bft) NO 50 0 min 93 W/m 14,0 C 14,6 C 9,7 km/h (2 Bft)
13.06.2016 12:09 14,6 C 95 % 1000,6 hPa 0,0 l/m 4,6 km/h (1 Bft) S-SO 150 0 min 95 W/m 13,8 C 14,6 C 9,7 km/h (2 Bft)
13.06.2016 12:12 14,6 C 95 % 1000,5 hPa 0,0 l/m 6,0 km/h (2 Bft) O 88 0 min 84 W/m 13,8 C 14,6 C 11,3 km/h (2 Bft)
13.06.2016 12:15 14,6 C 95 % 1000,5 hPa 0,0 l/m 2,2 km/h (1 Bft) O-SO 120 0 min 91 W/m 13,8 C 14,6 C 4,8 km/h (1 Bft)
13.06.2016 12:18 14,6 C 95 % 1000,5 hPa 0,0 l/m 6,3 km/h (2 Bft) S-SO 157 0 min 90 W/m 13,8 C 14,6 C 14,5 km/h (3 Bft)
13.06.2016 12:21 14,7 C 95 % 1000,5 hPa 0,0 l/m 3,9 km/h (1 Bft) SO 135 0 min 91 W/m 13,9 C 14,7 C 8,0 km/h (2 Bft)
13.06.2016 12:24 14,7 C 96 % 1000,5 hPa 0,0 l/m 4,4 km/h (1 Bft) O 80 0 min 72 W/m 14,1 C 14,7 C 12,9 km/h (3 Bft)
13.06.2016 12:27 14,7 C 95 % 1000,5 hPa 0,0 l/m 5,9 km/h (2 Bft) O-SO 102 0 min 77 W/m 13,9 C 14,7 C 14,5 km/h (3 Bft)
13.06.2016 12:30 14,7 C 95 % 1000,4 hPa 0,0 l/m 3,9 km/h (1 Bft) O 95 0 min 74 W/m 13,9 C 14,7 C 8,0 km/h (2 Bft)
13.06.2016 12:33 14,6 C 95 % 1000,4 hPa 0,0 l/m 4,0 km/h (1 Bft) SO 145 0 min 81 W/m 13,8 C 14,6 C 9,7 km/h (2 Bft)
13.06.2016 12:36 14,7 C 95 % 1000,3 hPa 0,0 l/m 3,1 km/h (1 Bft) S-SO 158 0 min 76 W/m 13,9 C 14,7 C 12,9 km/h (3 Bft)
13.06.2016 12:39 14,8 C 96 % 1000,4 hPa 0,0 l/m 3,9 km/h (1 Bft) S-SO 150 0 min 81 W/m 14,2 C 14,8 C 9,7 km/h (2 Bft)
13.06.2016 12:42 14,7 C 95 % 1000,3 hPa 0,0 l/m 4,2 km/h (1 Bft) O-SO 120 0 min 86 W/m 13,9 C 14,7 C 11,3 km/h (2 Bft)
13.06.2016 12:45 14,7 C 95 % 1000,3 hPa 0,0 l/m 6,1 km/h (2 Bft) S-SO 150 0 min 93 W/m 13,9 C 14,7 C 12,9 km/h (3 Bft)
13.06.2016 12:48 14,8 C 96 % 1000,3 hPa 0,0 l/m 5,7 km/h (2 Bft) SO 140 0 min 90 W/m 14,2 C 14,8 C 14,5 km/h (3 Bft)
13.06.2016 12:51 14,8 C 95 % 1000,3 hPa 0,0 l/m 4,6 km/h (1 Bft) O-SO 105 0 min 81 W/m 14,0 C 14,8 C 9,7 km/h (2 Bft)
13.06.2016 12:54 14,7 C 95 % 1000,3 hPa 0,0 l/m 4,3 km/h (1 Bft) SO 134 0 min 88 W/m 13,9 C 14,7 C 9,7 km/h (2 Bft)
13.06.2016 12:57 14,8 C 95 % 1000,2 hPa 0,0 l/m 3,8 km/h (1 Bft) SO 127 0 min 100 W/m 14,0 C 14,8 C 9,7 km/h (2 Bft)
13.06.2016 13:00 14,8 C 95 % 1000,2 hPa 0,0 l/m 3,2 km/h (1 Bft) O-SO 123 0 min 83 W/m 14,0 C 14,8 C 6,4 km/h (2 Bft)
13.06.2016 13:03 14,9 C 95 % 1000,2 hPa 0,0 l/m 3,4 km/h (1 Bft) SO 128 0 min 77 W/m 14,1 C 14,9 C 8,0 km/h (2 Bft)
13.06.2016 13:06 15,0 C 95 % 1000,3 hPa 0,0 l/m 3,3 km/h (1 Bft) O-SO 121 0 min 128 W/m 14,2 C 15,0 C 8,0 km/h (2 Bft)
13.06.2016 13:09 14,9 C 95 % 1000,2 hPa 0,0 l/m 5,7 km/h (2 Bft) SO 136 0 min 178 W/m 14,1 C 14,9 C 11,3 km/h (2 Bft)
13.06.2016 13:12 15,0 C 95 % 1000,2 hPa 0,0 l/m 4,8 km/h (1 Bft) O-SO 108 0 min 144 W/m 14,2 C 15,0 C 11,3 km/h (2 Bft)
13.06.2016 13:15 15,2 C 95 % 1000,2 hPa 0,0 l/m 3,5 km/h (1 Bft) O 84 0 min 90 W/m 14,4 C 15,2 C 8,0 km/h (2 Bft)
13.06.2016 13:18 15,2 C 95 % 1000,2 hPa 0,0 l/m 4,9 km/h (1 Bft) O 88 0 min 79 W/m 14,4 C 15,2 C 9,7 km/h (2 Bft)
13.06.2016 13:21 15,2 C 95 % 1000,1 hPa 0,0 l/m 5,9 km/h (2 Bft) O 82 0 min 100 W/m 14,4 C 15,2 C 11,3 km/h (2 Bft)
13.06.2016 13:24 15,1 C 95 % 1000,2 hPa 0,0 l/m 6,5 km/h (2 Bft) SO 146 0 min 111 W/m 14,3 C 15,1 C 12,9 km/h (3 Bft)
13.06.2016 13:27 15,2 C 95 % 1000,1 hPa 0,0 l/m 7,3 km/h (2 Bft) O-SO 102 0 min 100 W/m 14,4 C 14,7 C 16,1 km/h (3 Bft)
13.06.2016 13:30 15,2 C 94 % 1000,1 hPa 0,0 l/m 5,5 km/h (2 Bft) SO 128 0 min 84 W/m 14,2 C 15,2 C 12,9 km/h (3 Bft)
13.06.2016 13:33 15,2 C 95 % 1000,1 hPa 0,0 l/m 3,7 km/h (1 Bft) SO 140 0 min 69 W/m 14,4 C 15,2 C 6,4 km/h (2 Bft)
13.06.2016 13:36 15,2 C 94 % 1000,1 hPa 0,0 l/m 4,8 km/h (1 Bft) O-SO 113 0 min 72 W/m 14,2 C 15,2 C 11,3 km/h (2 Bft)
13.06.2016 13:39 15,2 C 94 % 1000,0 hPa 0,0 l/m 4,1 km/h (1 Bft) SO 132 0 min 63 W/m 14,2 C 15,2 C 9,7 km/h (2 Bft)
13.06.2016 13:42 15,2 C 94 % 1000,0 hPa 0,0 l/m 5,5 km/h (2 Bft) O-SO 121 0 min 93 W/m 14,2 C 15,2 C 11,3 km/h (2 Bft)
13.06.2016 13:45 15,2 C 95 % 1000,0 hPa 0,0 l/m 3,8 km/h (1 Bft) O 97 0 min 183 W/m 14,4 C 15,2 C 9,7 km/h (2 Bft)
13.06.2016 13:48 15,3 C 95 % 1000,0 hPa 0,0 l/m 6,3 km/h (2 Bft) S-SO 164 0 min 137 W/m 14,5 C 15,3 C 12,9 km/h (3 Bft)
13.06.2016 13:51 15,4 C 94 % 1000,0 hPa 0,0 l/m 5,5 km/h (2 Bft) O-SO 119 0 min 148 W/m 14,4 C 15,4 C 11,3 km/h (2 Bft)
13.06.2016 13:54 15,4 C 94 % 999,9 hPa 0,0 l/m 4,7 km/h (1 Bft) O-SO 103 0 min 195 W/m 14,4 C 15,4 C 12,9 km/h (3 Bft)
13.06.2016 13:57 15,5 C 94 % 1000,0 hPa 0,0 l/m 5,2 km/h (1 Bft) O-SO 113 0 min 156 W/m 14,5 C 15,5 C 9,7 km/h (2 Bft)
13.06.2016 14:00 15,6 C 94 % 999,9 hPa 0,0 l/m 3,9 km/h (1 Bft) SO 139 0 min 141 W/m 14,6 C 15,6 C 11,3 km/h (2 Bft)
13.06.2016 14:03 15,7 C 94 % 999,9 hPa 0,0 l/m 2,4 km/h (1 Bft) SO 133 0 min 105 W/m 14,7 C 15,7 C 4,8 km/h (1 Bft)
13.06.2016 14:06 15,7 C 93 % 999,9 hPa 0,0 l/m 4,5 km/h (1 Bft) O 101 0 min 102 W/m 14,6 C 15,7 C 9,7 km/h (2 Bft)
13.06.2016 14:09 15,7 C 93 % 999,8 hPa 0,0 l/m 4,7 km/h (1 Bft) SO 137 0 min 93 W/m 14,6 C 15,7 C 11,3 km/h (2 Bft)
13.06.2016 14:12 15,6 C 93 % 999,8 hPa 0,0 l/m 5,4 km/h (2 Bft) O-SO 119 0 min 90 W/m 14,5 C 15,6 C 11,3 km/h (2 Bft)
13.06.2016 14:15 15,6 C 93 % 999,8 hPa 0,0 l/m 4,1 km/h (1 Bft) O-NO 77 0 min 105 W/m 14,5 C 15,6 C 9,7 km/h (2 Bft)
13.06.2016 14:18 15,6 C 93 % 999,8 hPa 0,0 l/m 5,3 km/h (1 Bft) O-SO 106 0 min 102 W/m 14,5 C 15,6 C 12,9 km/h (3 Bft)
13.06.2016 14:21 15,7 C 93 % 999,7 hPa 0,0 l/m 3,9 km/h (1 Bft) O 96 0 min 137 W/m 14,6 C 15,7 C 8,0 km/h (2 Bft)
13.06.2016 14:24 15,7 C 93 % 999,7 hPa 0,0 l/m 4,2 km/h (1 Bft) SO 141 0 min 141 W/m 14,6 C 15,7 C 11,3 km/h (2 Bft)
13.06.2016 14:27 15,8 C 93 % 999,7 hPa 0,0 l/m 4,2 km/h (1 Bft) O-SO 105 0 min 160 W/m 14,7 C 15,8 C 8,0 km/h (2 Bft)
13.06.2016 14:30 16,0 C 93 % 999,7 hPa 0,0 l/m 3,9 km/h (1 Bft) O 101 0 min 165 W/m 14,9 C 16,0 C 9,7 km/h (2 Bft)
13.06.2016 14:33 16,2 C 93 % 999,6 hPa 0,0 l/m 2,6 km/h (1 Bft) O-SO 102 0 min 125 W/m 15,1 C 16,2 C 4,8 km/h (1 Bft)
13.06.2016 14:36 16,2 C 92 % 999,6 hPa 0,0 l/m 3,0 km/h (1 Bft) O-SO 121 0 min 151 W/m 14,9 C 16,2 C 6,4 km/h (2 Bft)
13.06.2016 14:39 16,2 C 92 % 999,6 hPa 0,0 l/m 2,1 km/h (1 Bft) O-SO 120 0 min 195 W/m 14,9 C 16,2 C 4,8 km/h (1 Bft)
13.06.2016 14:42 16,4 C 92 % 999,5 hPa 0,0 l/m 4,5 km/h (1 Bft) O 94 0 min 234 W/m 15,1 C 16,4 C 11,3 km/h (2 Bft)
13.06.2016 14:45 16,5 C 92 % 999,5 hPa 0,0 l/m 4,9 km/h (1 Bft) O 83 0 min 197 W/m 15,2 C 16,5 C 9,7 km/h (2 Bft)
13.06.2016 14:48 16,7 C 91 % 999,5 hPa 0,0 l/m 2,6 km/h (1 Bft) SO 144 0 min 248 W/m 15,2 C 16,7 C 6,4 km/h (2 Bft)
13.06.2016 14:51 17,0 C 92 % 999,5 hPa 0,0 l/m 3,0 km/h (1 Bft) N-NO 22 0 min 192 W/m 15,7 C 17,0 C 8,0 km/h (2 Bft)
13.06.2016 14:54 16,9 C 90 % 999,4 hPa 0,0 l/m 3,8 km/h (1 Bft) S-SO 153 0 min 114 W/m 15,2 C 16,9 C 9,7 km/h (2 Bft)
13.06.2016 14:57 16,8 C 90 % 999,4 hPa 0,0 l/m 3,2 km/h (1 Bft) O-SO 108 0 min 51 W/m 15,1 C 16,8 C 9,7 km/h (2 Bft)
13.06.2016 15:00 16,7 C 90 % 999,4 hPa 0,0 l/m 3,1 km/h (1 Bft) O 96 0 min 40 W/m 15,0 C 16,7 C 6,4 km/h (2 Bft)
13.06.2016 15:03 16,7 C 90 % 999,4 hPa 0,0 l/m 4,4 km/h (1 Bft) O-SO 117 0 min 93 W/m 15,0 C 16,7 C 9,7 km/h (2 Bft)
13.06.2016 15:06 16,6 C 91 % 999,4 hPa 0,0 l/m 3,9 km/h (1 Bft) SO 128 0 min 186 W/m 15,1 C 16,6 C 9,7 km/h (2 Bft)
13.06.2016 15:09 16,6 C 91 % 999,3 hPa 0,0 l/m 2,2 km/h (1 Bft) SO 139 0 min 290 W/m 15,1 C 16,6 C 4,8 km/h (1 Bft)
13.06.2016 15:12 16,8 C 90 % 999,4 hPa 0,0 l/m 5,4 km/h (2 Bft) S 184 0 min 258 W/m 15,1 C 16,8 C 11,3 km/h (2 Bft)
13.06.2016 15:15 17,1 C 90 % 999,3 hPa 0,0 l/m 3,8 km/h (1 Bft) SO 126 0 min 295 W/m 15,4 C 17,1 C 8,0 km/h (2 Bft)
13.06.2016 15:18 17,2 C 88 % 999,3 hPa 0,0 l/m 5,3 km/h (1 Bft) O-SO 103 0 min 274 W/m 15,2 C 17,2 C 11,3 km/h (2 Bft)
13.06.2016 15:21 17,2 C 88 % 999,3 hPa 0,0 l/m 5,5 km/h (2 Bft) N-NO 29 0 min 188 W/m 15,2 C 17,2 C 14,5 km/h (3 Bft)
13.06.2016 15:24 17,2 C 87 % 999,3 hPa 0,0 l/m 6,0 km/h (2 Bft) SO 124 0 min 176 W/m 15,0 C 17,2 C 12,9 km/h (3 Bft)
13.06.2016 15:27 17,3 C 88 % 999,3 hPa 0,0 l/m 3,7 km/h (1 Bft) O 90 0 min 146 W/m 15,3 C 17,3 C 9,7 km/h (2 Bft)
13.06.2016 15:30 17,3 C 88 % 999,3 hPa 0,0 l/m 4,0 km/h (1 Bft) NO 51 0 min 181 W/m 15,3 C 17,3 C 9,7 km/h (2 Bft)
13.06.2016 15:33 17,2 C 88 % 999,3 hPa 0,0 l/m 5,0 km/h (1 Bft) N-NO 32 0 min 185 W/m 15,2 C 17,2 C 12,9 km/h (3 Bft)
13.06.2016 15:36 17,3 C 88 % 999,3 hPa 0,0 l/m 2,8 km/h (1 Bft) NO 39 0 min 214 W/m 15,3 C 17,3 C 11,3 km/h (2 Bft)
13.06.2016 15:39 17,3 C 87 % 999,3 hPa 0,0 l/m 4,5 km/h (1 Bft) O-SO 109 0 min 202 W/m 15,1 C 17,3 C 8,0 km/h (2 Bft)
13.06.2016 15:42 17,3 C 88 % 999,3 hPa 0,0 l/m 3,3 km/h (1 Bft) SO 135 0 min 250 W/m 15,3 C 17,3 C 8,0 km/h (2 Bft)
13.06.2016 15:45 17,4 C 88 % 999,3 hPa 0,0 l/m 5,0 km/h (1 Bft) O-SO 109 0 min 262 W/m 15,4 C 17,4 C 17,7 km/h (3 Bft)
13.06.2016 15:48 17,6 C 88 % 999,2 hPa 0,0 l/m 3,6 km/h (1 Bft) NO 40 0 min 260 W/m 15,6 C 17,6 C 11,3 km/h (2 Bft)
13.06.2016 15:51 17,7 C 87 % 999,2 hPa 0,0 l/m 4,9 km/h (1 Bft) O-NO 76 0 min 274 W/m 15,5 C 17,7 C 11,3 km/h (2 Bft)
13.06.2016 15:54 17,7 C 86 % 999,2 hPa 0,0 l/m 6,0 km/h (2 Bft) O 79 0 min 304 W/m 15,3 C 17,7 C 14,5 km/h (3 Bft)
13.06.2016 15:57 17,6 C 86 % 999,2 hPa 0,0 l/m 6,3 km/h (2 Bft) O-NO 71 0 min 306 W/m 15,2 C 17,6 C 14,5 km/h (3 Bft)
13.06.2016 16:00 17,8 C 87 % 999,2 hPa 0,0 l/m 4,1 km/h (1 Bft) O 101 0 min 251 W/m 15,6 C 17,8 C 11,3 km/h (2 Bft)
13.06.2016 16:03 17,9 C 86 % 999,2 hPa 0,0 l/m 5,1 km/h (1 Bft) O 90 0 min 244 W/m 15,5 C 17,9 C 14,5 km/h (3 Bft)
13.06.2016 16:06 18,0 C 86 % 999,2 hPa 0,0 l/m 4,4 km/h (1 Bft) O 98 0 min 264 W/m 15,6 C 18,0 C 11,3 km/h (2 Bft)
13.06.2016 16:09 18,0 C 85 % 999,2 hPa 0,0 l/m 4,1 km/h (1 Bft) O-NO 76 0 min 246 W/m 15,4 C 18,0 C 8,0 km/h (2 Bft)
13.06.2016 16:12 17,9 C 84 % 999,2 hPa 0,0 l/m 6,5 km/h (2 Bft) O-SO 106 0 min 227 W/m 15,2 C 17,9 C 16,1 km/h (3 Bft)
13.06.2016 16:15 17,8 C 86 % 999,2 hPa 0,0 l/m 4,4 km/h (1 Bft) O 80 0 min 216 W/m 15,4 C 17,8 C 12,9 km/h (3 Bft)
13.06.2016 16:18 17,8 C 86 % 999,2 hPa 0,0 l/m 4,6 km/h (1 Bft) O-NO 71 0 min 211 W/m 15,4 C 17,8 C 11,3 km/h (2 Bft)
13.06.2016 16:21 17,8 C 86 % 999,2 hPa 0,0 l/m 3,4 km/h (1 Bft) O-NO 71 0 min 207 W/m 15,4 C 17,8 C 8,0 km/h (2 Bft)
13.06.2016 16:24 17,7 C 86 % 999,1 hPa 0,0 l/m 4,3 km/h (1 Bft) O-SO 106 0 min 188 W/m 15,3 C 17,7 C 14,5 km/h (3 Bft)
13.06.2016 16:27 18,0 C 86 % 999,2 hPa 0,0 l/m 2,8 km/h (1 Bft) O-SO 107 0 min 193 W/m 15,6 C 18,0 C 6,4 km/h (2 Bft)
13.06.2016 16:30 17,9 C 86 % 999,2 hPa 0,0 l/m 2,4 km/h (1 Bft) O-SO 116 0 min 192 W/m 15,5 C 17,9 C 9,7 km/h (2 Bft)
13.06.2016 16:33 17,8 C 85 % 999,1 hPa 0,0 l/m 5,5 km/h (2 Bft) NO 45 0 min 199 W/m 15,2 C 17,8 C 12,9 km/h (3 Bft)
13.06.2016 16:36 17,9 C 86 % 999,1 hPa 0,0 l/m 3,6 km/h (1 Bft) SO 125 0 min 183 W/m 15,5 C 17,9 C 8,0 km/h (2 Bft)
13.06.2016 16:39 17,9 C 85 % 999,0 hPa 0,0 l/m 5,0 km/h (1 Bft) NO 40 0 min 213 W/m 15,3 C 17,9 C 11,3 km/h (2 Bft)
13.06.2016 16:42 17,9 C 86 % 999,0 hPa 0,0 l/m 6,0 km/h (2 Bft) O-NO 63 0 min 213 W/m 15,5 C 17,9 C 16,1 km/h (3 Bft)
13.06.2016 16:45 17,9 C 85 % 999,0 hPa 0,0 l/m 4,3 km/h (1 Bft) NO 44 0 min 207 W/m 15,3 C 17,9 C 12,9 km/h (3 Bft)
13.06.2016 16:48 17,9 C 85 % 999,0 hPa 0,0 l/m 5,2 km/h (1 Bft) NW 312 0 min 209 W/m 15,3 C 17,9 C 12,9 km/h (3 Bft)
13.06.2016 16:51 17,9 C 85 % 999,0 hPa 0,0 l/m 6,3 km/h (2 Bft) O-NO 71 0 min 211 W/m 15,3 C 17,9 C 12,9 km/h (3 Bft)
13.06.2016 16:54 17,8 C 85 % 999,0 hPa 0,0 l/m 4,8 km/h (1 Bft) NO 34 0 min 190 W/m 15,2 C 17,8 C 8,0 km/h (2 Bft)
13.06.2016 16:57 17,9 C 86 % 998,9 hPa 0,0 l/m 4,4 km/h (1 Bft) O 95 0 min 176 W/m 15,5 C 17,9 C 12,9 km/h (3 Bft)
13.06.2016 17:00 17,8 C 85 % 998,8 hPa 0,0 l/m 4,7 km/h (1 Bft) O-NO 77 0 min 158 W/m 15,2 C 17,8 C 12,9 km/h (3 Bft)
13.06.2016 17:03 17,8 C 85 % 998,8 hPa 0,0 l/m 4,0 km/h (1 Bft) O-NO 72 0 min 146 W/m 15,2 C 17,8 C 8,0 km/h (2 Bft)
13.06.2016 17:06 17,7 C 85 % 998,8 hPa 0,0 l/m 4,8 km/h (1 Bft) S 175 0 min 135 W/m 15,1 C 17,7 C 17,7 km/h (3 Bft)
13.06.2016 17:09 17,7 C 85 % 998,7 hPa 0,0 l/m 5,5 km/h (2 Bft) O 86 0 min 127 W/m 15,1 C 17,7 C 12,9 km/h (3 Bft)
13.06.2016 17:12 17,6 C 85 % 998,7 hPa 0,0 l/m 4,7 km/h (1 Bft) O-NO 61 0 min 125 W/m 15,0 C 17,6 C 11,3 km/h (2 Bft)
13.06.2016 17:15 17,7 C 86 % 998,7 hPa 0,0 l/m 4,4 km/h (1 Bft) NO 42 0 min 113 W/m 15,3 C 17,7 C 9,7 km/h (2 Bft)
13.06.2016 17:18 17,7 C 86 % 998,7 hPa 0,0 l/m 1,7 km/h (1 Bft) SO 128 0 min 100 W/m 15,3 C 17,7 C 3,2 km/h (1 Bft)
13.06.2016 17:21 17,7 C 87 % 998,7 hPa 0,0 l/m 2,3 km/h (1 Bft) O-SO 122 0 min 98 W/m 15,5 C 17,7 C 4,8 km/h (1 Bft)
13.06.2016 17:24 17,5 C 87 % 998,7 hPa 0,0 l/m 3,8 km/h (1 Bft) S-SO 154 0 min 95 W/m 15,3 C 17,5 C 11,3 km/h (2 Bft)
13.06.2016 17:27 17,3 C 88 % 998,7 hPa 0,0 l/m 3,5 km/h (1 Bft) S-SW 192 0 min 81 W/m 15,3 C 17,3 C 8,0 km/h (2 Bft)
13.06.2016 17:30 17,4 C 89 % 998,7 hPa 0,0 l/m 3,3 km/h (1 Bft) S-SO 153 0 min 72 W/m 15,6 C 17,4 C 11,3 km/h (2 Bft)
13.06.2016 17:33 17,3 C 88 % 998,6 hPa 0,0 l/m 5,9 km/h (2 Bft) O-SO 103 0 min 81 W/m 15,3 C 17,3 C 16,1 km/h (3 Bft)
13.06.2016 17:36 17,2 C 89 % 998,6 hPa 0,0 l/m 4,5 km/h (1 Bft) SO 125 0 min 83 W/m 15,4 C 17,2 C 11,3 km/h (2 Bft)
13.06.2016 17:39 17,1 C 90 % 998,6 hPa 0,0 l/m 3,5 km/h (1 Bft) NO 51 0 min 97 W/m 15,4 C 17,1 C 12,9 km/h (3 Bft)
13.06.2016 17:42 17,1 C 89 % 998,6 hPa 0,0 l/m 4,7 km/h (1 Bft) N-NW 337 0 min 93 W/m 15,3 C 17,1 C 12,9 km/h (3 Bft)
13.06.2016 17:45 16,9 C 90 % 998,7 hPa 0,0 l/m 3,9 km/h (1 Bft) O 86 0 min 111 W/m 15,2 C 16,9 C 9,7 km/h (2 Bft)
13.06.2016 17:48 16,9 C 92 % 998,7 hPa 0,4 l/m 3,6 km/h (1 Bft) SW 221 0 min 135 W/m 15,6 C 16,9 C 11,3 km/h (2 Bft)
13.06.2016 17:51 16,8 C 92 % 998,6 hPa 0,0 l/m 4,4 km/h (1 Bft) O-NO 59 0 min 141 W/m 15,5 C 16,8 C 9,7 km/h (2 Bft)
13.06.2016 17:54 16,8 C 92 % 998,6 hPa 0,2 l/m 4,9 km/h (1 Bft) O-SO 103 0 min 109 W/m 15,5 C 16,8 C 11,3 km/h (2 Bft)
13.06.2016 17:57 16,7 C 93 % 998,6 hPa 0,0 l/m 3,8 km/h (1 Bft) O-SO 105 0 min 120 W/m 15,6 C 16,7 C 11,3 km/h (2 Bft)
13.06.2016 18:00 16,7 C 93 % 998,6 hPa 0,0 l/m 2,6 km/h (1 Bft) O 90 0 min 111 W/m 15,6 C 16,7 C 8,0 km/h (2 Bft)
13.06.2016 18:03 16,7 C 94 % 998,5 hPa 0,2 l/m 4,2 km/h (1 Bft) O-NO 65 0 min 105 W/m 15,7 C 16,7 C 14,5 km/h (3 Bft)
13.06.2016 18:06 16,7 C 94 % 998,6 hPa 0,0 l/m 3,5 km/h (1 Bft) O 92 0 min 105 W/m 15,7 C 16,7 C 8,0 km/h (2 Bft)
13.06.2016 18:09 16,7 C 94 % 998,5 hPa 0,0 l/m 2,6 km/h (1 Bft) NO 50 0 min 111 W/m 15,7 C 16,7 C 8,0 km/h (2 Bft)
13.06.2016 18:12 16,8 C 94 % 998,5 hPa 0,0 l/m 3,3 km/h (1 Bft) NO 46 0 min 118 W/m 15,8 C 16,8 C 9,7 km/h (2 Bft)
13.06.2016 18:15 16,7 C 94 % 998,4 hPa 0,0 l/m 3,7 km/h (1 Bft) SO 137 0 min 116 W/m 15,7 C 16,7 C 6,4 km/h (2 Bft)
13.06.2016 18:18 16,7 C 93 % 998,5 hPa 0,0 l/m 5,3 km/h (1 Bft) NO 49 0 min 105 W/m 15,6 C 16,7 C 16,1 km/h (3 Bft)
13.06.2016 18:21 16,7 C 93 % 998,5 hPa 0,0 l/m 4,1 km/h (1 Bft) NO 47 0 min 97 W/m 15,6 C 16,7 C 9,7 km/h (2 Bft)
13.06.2016 18:24 16,6 C 94 % 998,5 hPa 0,0 l/m 2,9 km/h (1 Bft) O-NO 57 0 min 93 W/m 15,6 C 16,6 C 14,5 km/h (3 Bft)
13.06.2016 18:27 16,7 C 94 % 998,5 hPa 0,2 l/m 3,2 km/h (1 Bft) O 98 0 min 83 W/m 15,7 C 16,7 C 9,7 km/h (2 Bft)
13.06.2016 18:30 16,6 C 94 % 998,5 hPa 0,2 l/m 2,9 km/h (1 Bft) S 177 0 min 84 W/m 15,6 C 16,6 C 9,7 km/h (2 Bft)
13.06.2016 18:33 16,7 C 94 % 998,5 hPa 0,0 l/m 2,0 km/h (1 Bft) O-SO 109 0 min 74 W/m 15,7 C 16,7 C 4,8 km/h (1 Bft)
13.06.2016 18:36 16,7 C 94 % 998,5 hPa 0,2 l/m 2,5 km/h (1 Bft) O 94 0 min 70 W/m 15,7 C 16,7 C 6,4 km/h (2 Bft)
13.06.2016 18:39 16,7 C 94 % 998,4 hPa 0,0 l/m 3,7 km/h (1 Bft) N 360 0 min 74 W/m 15,7 C 16,7 C 8,0 km/h (2 Bft)
13.06.2016 18:42 16,6 C 94 % 998,4 hPa 0,0 l/m 3,4 km/h (1 Bft) NO 34 0 min 74 W/m 15,6 C 16,6 C 9,7 km/h (2 Bft)
13.06.2016 18:45 16,4 C 94 % 998,4 hPa 0,0 l/m 2,9 km/h (1 Bft) N 5 0 min 62 W/m 15,4 C 16,4 C 9,7 km/h (2 Bft)
13.06.2016 18:48 16,5 C 94 % 998,5 hPa 0,0 l/m 3,3 km/h (1 Bft) O-NO 65 0 min 53 W/m 15,5 C 16,5 C 8,0 km/h (2 Bft)
13.06.2016 18:51 16,4 C 94 % 998,4 hPa 0,0 l/m 2,2 km/h (1 Bft) O-SO 123 0 min 46 W/m 15,4 C 16,4 C 8,0 km/h (2 Bft)
13.06.2016 18:54 16,4 C 95 % 998,5 hPa 0,0 l/m 1,6 km/h (1 Bft) N-NO 22 0 min 46 W/m 15,6 C 16,4 C 6,4 km/h (2 Bft)
13.06.2016 18:57 16,3 C 94 % 998,4 hPa 0,0 l/m 3,2 km/h (1 Bft) O-NO 77 0 min 46 W/m 15,3 C 16,3 C 8,0 km/h (2 Bft)
13.06.2016 19:00 16,3 C 94 % 998,5 hPa 0,0 l/m 2,1 km/h (1 Bft) W 278 0 min 56 W/m 15,3 C 16,3 C 4,8 km/h (1 Bft)
13.06.2016 19:03 16,4 C 94 % 998,5 hPa 0,0 l/m 3,2 km/h (1 Bft) O-NO 65 0 min 77 W/m 15,4 C 16,4 C 8,0 km/h (2 Bft)
13.06.2016 19:06 16,4 C 94 % 998,5 hPa 0,0 l/m 2,5 km/h (1 Bft) NO 51 0 min 79 W/m 15,4 C 16,4 C 6,4 km/h (2 Bft)
13.06.2016 19:09 16,5 C 94 % 998,5 hPa 0,0 l/m 1,5 km/h (1 Bft) O 81 0 min 93 W/m 15,5 C 16,5 C 6,4 km/h (2 Bft)
13.06.2016 19:12 16,6 C 94 % 998,5 hPa 0,0 l/m 0,7 km/h (0 Bft) O 81 0 min 104 W/m 15,6 C 16,6 C 1,6 km/h (1 Bft)
13.06.2016 19:15 16,7 C 95 % 998,5 hPa 0,0 l/m 3,4 km/h (1 Bft) O-SO 111 0 min 105 W/m 15,9 C 16,7 C 9,7 km/h (2 Bft)
13.06.2016 19:18 16,7 C 94 % 998,4 hPa 0,0 l/m 3,6 km/h (1 Bft) O-SO 103 0 min 114 W/m 15,7 C 16,7 C 6,4 km/h (2 Bft)
13.06.2016 19:21 16,7 C 94 % 998,5 hPa 0,0 l/m 4,0 km/h (1 Bft) O-NO 72 0 min 120 W/m 15,7 C 16,7 C 11,3 km/h (2 Bft)
13.06.2016 19:24 16,8 C 93 % 998,5 hPa 0,0 l/m 4,4 km/h (1 Bft) N-NO 30 0 min 113 W/m 15,7 C 16,8 C 9,7 km/h (2 Bft)
13.06.2016 19:27 16,9 C 93 % 998,5 hPa 0,0 l/m 4,0 km/h (1 Bft) O-NO 67 0 min 90 W/m 15,8 C 16,9 C 12,9 km/h (3 Bft)
13.06.2016 19:30 17,1 C 92 % 998,5 hPa 0,0 l/m 2,3 km/h (1 Bft) O-NO 74 0 min 90 W/m 15,8 C 17,1 C 6,4 km/h (2 Bft)
13.06.2016 19:33 17,2 C 91 % 998,5 hPa 0,0 l/m 2,3 km/h (1 Bft) O 94 0 min 107 W/m 15,7 C 17,2 C 4,8 km/h (1 Bft)
13.06.2016 19:36 17,3 C 92 % 998,5 hPa 0,0 l/m 3,1 km/h (1 Bft) O 98 0 min 116 W/m 16,0 C 17,3 C 12,9 km/h (3 Bft)
13.06.2016 19:39 17,3 C 91 % 998,5 hPa 0,0 l/m 2,7 km/h (1 Bft) S-SO 150 0 min 102 W/m 15,8 C 17,3 C 6,4 km/h (2 Bft)
13.06.2016 19:42 17,3 C 91 % 998,5 hPa 0,0 l/m 3,1 km/h (1 Bft) O 81 0 min 77 W/m 15,8 C 17,3 C 6,4 km/h (2 Bft)
13.06.2016 19:45 17,3 C 91 % 998,5 hPa 0,0 l/m 3,4 km/h (1 Bft) O-SO 113 0 min 62 W/m 15,8 C 17,3 C 8,0 km/h (2 Bft)
13.06.2016 19:48 17,3 C 91 % 998,6 hPa 0,0 l/m 4,4 km/h (1 Bft) NO 54 0 min 26 W/m 15,8 C 17,3 C 16,1 km/h (3 Bft)
13.06.2016 19:51 17,1 C 90 % 998,6 hPa 0,0 l/m 7,8 km/h (2 Bft) S 174 0 min 30 W/m 15,4 C 16,4 C 16,1 km/h (3 Bft)
13.06.2016 19:54 16,8 C 90 % 998,7 hPa 0,0 l/m 4,8 km/h (1 Bft) SO 145 0 min 54 W/m 15,1 C 16,8 C 9,7 km/h (2 Bft)
13.06.2016 19:57 16,5 C 90 % 998,7 hPa 0,0 l/m 4,2 km/h (1 Bft) SO 126 0 min 42 W/m 14,9 C 16,5 C 8,0 km/h (2 Bft)
13.06.2016 20:00 16,3 C 90 % 998,7 hPa 0,0 l/m 7,0 km/h (2 Bft) S-SW 199 0 min 39 W/m 14,7 C 16,0 C 14,5 km/h (3 Bft)
13.06.2016 20:03 16,2 C 91 % 998,8 hPa 0,0 l/m 3,3 km/h (1 Bft) O-SO 113 0 min 32 W/m 14,7 C 16,2 C 8,0 km/h (2 Bft)
13.06.2016 20:06 16,1 C 92 % 998,8 hPa 0,0 l/m 1,4 km/h (1 Bft) O-SO 113 0 min 23 W/m 14,8 C 16,1 C 3,2 km/h (1 Bft)
13.06.2016 20:09 16,0 C 92 % 998,8 hPa 0,0 l/m 0,9 km/h (0 Bft) O-SO 112 0 min 21 W/m 14,7 C 16,0 C 3,2 km/h (1 Bft)
13.06.2016 20:12 15,9 C 92 % 998,8 hPa 0,0 l/m 3,0 km/h (1 Bft) O-SO 117 0 min 21 W/m 14,6 C 15,9 C 4,8 km/h (1 Bft)
13.06.2016 20:15 15,8 C 91 % 998,8 hPa 0,0 l/m 1,9 km/h (1 Bft) O-SO 112 0 min 25 W/m 14,3 C 15,8 C 6,4 km/h (2 Bft)
13.06.2016 20:18 15,7 C 92 % 998,8 hPa 0,0 l/m 2,5 km/h (1 Bft) O-SO 109 0 min 33 W/m 14,4 C 15,7 C 6,4 km/h (2 Bft)
13.06.2016 20:21 15,7 C 92 % 998,7 hPa 0,0 l/m 2,6 km/h (1 Bft) SO 146 0 min 47 W/m 14,4 C 15,7 C 6,4 km/h (2 Bft)
13.06.2016 20:24 15,7 C 93 % 998,7 hPa 0,0 l/m 2,3 km/h (1 Bft) S-SO 153 0 min 47 W/m 14,6 C 15,7 C 4,8 km/h (1 Bft)
13.06.2016 20:27 15,7 C 92 % 998,7 hPa 0,0 l/m 3,7 km/h (1 Bft) O 101 0 min 37 W/m 14,4 C 15,7 C 14,5 km/h (3 Bft)
13.06.2016 20:30 15,6 C 93 % 998,7 hPa 0,0 l/m 2,1 km/h (1 Bft) SO 130 0 min 26 W/m 14,5 C 15,6 C 8,0 km/h (2 Bft)
13.06.2016 20:33 15,6 C 93 % 998,6 hPa 0,0 l/m 2,1 km/h (1 Bft) O-SO 121 0 min 25 W/m 14,5 C 15,6 C 4,8 km/h (1 Bft)
13.06.2016 20:36 15,5 C 93 % 998,7 hPa 0,0 l/m 3,1 km/h (1 Bft) O-NO 74 0 min 25 W/m 14,4 C 15,5 C 8,0 km/h (2 Bft)
13.06.2016 20:39 15,5 C 93 % 998,6 hPa 0,0 l/m 2,6 km/h (1 Bft) O-NO 66 0 min 26 W/m 14,4 C 15,5 C 6,4 km/h (2 Bft)
13.06.2016 20:42 15,5 C 94 % 998,6 hPa 0,0 l/m 3,1 km/h (1 Bft) O 91 0 min 28 W/m 14,5 C 15,5 C 6,4 km/h (2 Bft)
13.06.2016 20:45 15,6 C 94 % 998,6 hPa 0,0 l/m 3,2 km/h (1 Bft) SO 130 0 min 30 W/m 14,6 C 15,6 C 6,4 km/h (2 Bft)
13.06.2016 20:48 15,6 C 94 % 998,6 hPa 0,0 l/m 2,2 km/h (1 Bft) S-SO 148 0 min 32 W/m 14,6 C 15,6 C 6,4 km/h (2 Bft)
13.06.2016 20:51 15,6 C 94 % 998,6 hPa 0,0 l/m 3,8 km/h (1 Bft) O 93 0 min 33 W/m 14,6 C 15,6 C 9,7 km/h (2 Bft)
13.06.2016 20:54 15,6 C 94 % 998,6 hPa 0,0 l/m 2,8 km/h (1 Bft) NO 42 0 min 35 W/m 14,6 C 15,6 C 8,0 km/h (2 Bft)
13.06.2016 20:57 15,6 C 94 % 998,7 hPa 0,0 l/m 1,5 km/h (1 Bft) NO 53 0 min 33 W/m 14,6 C 15,6 C 3,2 km/h (1 Bft)
13.06.2016 21:00 15,7 C 94 % 998,6 hPa 0,0 l/m 2,5 km/h (1 Bft) O 98 0 min 30 W/m 14,7 C 15,7 C 6,4 km/h (2 Bft)
13.06.2016 21:03 15,7 C 95 % 998,7 hPa 0,0 l/m 1,4 km/h (1 Bft) O-NO 69 0 min 28 W/m 14,9 C 15,7 C 4,8 km/h (1 Bft)
13.06.2016 21:06 15,7 C 95 % 998,7 hPa 0,0 l/m 3,0 km/h (1 Bft) N 355 0 min 26 W/m 14,9 C 15,7 C 8,0 km/h (2 Bft)
13.06.2016 21:09 15,7 C 95 % 998,7 hPa 0,0 l/m 3,6 km/h (1 Bft) NO 51 0 min 28 W/m 14,9 C 15,7 C 9,7 km/h (2 Bft)
13.06.2016 21:12 15,8 C 95 % 998,7 hPa 0,0 l/m 3,8 km/h (1 Bft) O 88 0 min 25 W/m 15,0 C 15,8 C 11,3 km/h (2 Bft)
13.06.2016 21:15 15,8 C 95 % 998,7 hPa 0,0 l/m 2,0 km/h (1 Bft) O-NO 60 0 min 23 W/m 15,0 C 15,8 C 4,8 km/h (1 Bft)
13.06.2016 21:18 15,9 C 95 % 998,7 hPa 0,0 l/m 1,6 km/h (1 Bft) NO 39 0 min 21 W/m 15,1 C 15,9 C 4,8 km/h (1 Bft)
13.06.2016 21:21 15,9 C 95 % 998,6 hPa 0,0 l/m 2,2 km/h (1 Bft) N-NW 329 0 min 19 W/m 15,1 C 15,9 C 8,0 km/h (2 Bft)
13.06.2016 21:24 15,9 C 95 % 998,7 hPa 0,0 l/m 3,2 km/h (1 Bft) O-SO 113 0 min 19 W/m 15,1 C 15,9 C 6,4 km/h (2 Bft)
13.06.2016 21:27 15,9 C 95 % 998,7 hPa 0,0 l/m 3,6 km/h (1 Bft) N 351 0 min 19 W/m 15,1 C 15,9 C 9,7 km/h (2 Bft)
13.06.2016 21:30 16,1 C 95 % 998,7 hPa 0,0 l/m 2,5 km/h (1 Bft) O-NO 71 0 min 18 W/m 15,3 C 16,1 C 8,0 km/h (2 Bft)
13.06.2016 21:33 16,1 C 95 % 998,7 hPa 0,0 l/m 4,5 km/h (1 Bft) NO 38 0 min 12 W/m 15,3 C 16,1 C 11,3 km/h (2 Bft)
13.06.2016 21:36 16,1 C 95 % 998,7 hPa 0,0 l/m 2,7 km/h (1 Bft) O-NO 60 0 min 11 W/m 15,3 C 16,1 C 8,0 km/h (2 Bft)
13.06.2016 21:39 15,9 C 95 % 998,7 hPa 0,0 l/m 4,8 km/h (1 Bft) S-SO 147 0 min 11 W/m 15,1 C 15,9 C 11,3 km/h (2 Bft)
13.06.2016 21:42 15,9 C 94 % 998,7 hPa 0,0 l/m 4,5 km/h (1 Bft) O-SO 108 0 min 9 W/m 14,9 C 15,9 C 12,9 km/h (3 Bft)
13.06.2016 21:45 15,8 C 94 % 998,7 hPa 0,0 l/m 3,5 km/h (1 Bft) W-SW 240 0 min 7 W/m 14,8 C 15,8 C 12,9 km/h (3 Bft)
13.06.2016 21:48 15,8 C 94 % 998,7 hPa 0,0 l/m 3,1 km/h (1 Bft) O 90 0 min 5 W/m 14,8 C 15,8 C 9,7 km/h (2 Bft)
13.06.2016 21:51 15,8 C 94 % 998,7 hPa 0,0 l/m 4,5 km/h (1 Bft) O 100 0 min 5 W/m 14,8 C 15,8 C 11,3 km/h (2 Bft)
13.06.2016 21:54 15,8 C 94 % 998,7 hPa 0,0 l/m 4,0 km/h (1 Bft) O-SO 107 0 min 5 W/m 14,8 C 15,8 C 14,5 km/h (3 Bft)
13.06.2016 21:57 15,7 C 94 % 998,7 hPa 0,0 l/m 5,4 km/h (2 Bft) S-SW 211 0 min 0 W/m 14,7 C 15,7 C 12,9 km/h (3 Bft)
13.06.2016 22:00 15,7 C 94 % 998,8 hPa 0,0 l/m 3,9 km/h (1 Bft) O 94 0 min 0 W/m 14,7 C 15,7 C 11,3 km/h (2 Bft)
13.06.2016 22:03 15,7 C 94 % 998,7 hPa 0,0 l/m 3,0 km/h (1 Bft) NW 319 0 min 0 W/m 14,7 C 15,7 C 6,4 km/h (2 Bft)
13.06.2016 22:06 15,6 C 94 % 998,6 hPa 0,0 l/m 3,1 km/h (1 Bft) O-NO 78 0 min 0 W/m 14,6 C 15,6 C 6,4 km/h (2 Bft)
13.06.2016 22:09 15,6 C 94 % 998,6 hPa 0,0 l/m 5,4 km/h (2 Bft) S-SO 155 0 min 0 W/m 14,6 C 15,6 C 11,3 km/h (2 Bft)
13.06.2016 22:12 15,6 C 94 % 998,6 hPa 0,0 l/m 4,6 km/h (1 Bft) N 360 0 min 0 W/m 14,6 C 15,6 C 9,7 km/h (2 Bft)
13.06.2016 22:15 15,5 C 94 % 998,5 hPa 0,0 l/m 3,9 km/h (1 Bft) O-SO 123 0 min 0 W/m 14,5 C 15,5 C 8,0 km/h (2 Bft)
13.06.2016 22:18 15,5 C 94 % 998,5 hPa 0,0 l/m 4,7 km/h (1 Bft) NW 316 0 min 0 W/m 14,5 C 15,5 C 11,3 km/h (2 Bft)
13.06.2016 22:21 15,5 C 94 % 998,5 hPa 0,0 l/m 4,1 km/h (1 Bft) O-SO 105 0 min 0 W/m 14,5 C 15,5 C 9,7 km/h (2 Bft)
13.06.2016 22:24 15,5 C 94 % 998,4 hPa 0,0 l/m 4,4 km/h (1 Bft) O 95 0 min 0 W/m 14,5 C 15,5 C 9,7 km/h (2 Bft)
13.06.2016 22:27 15,5 C 94 % 998,4 hPa 0,0 l/m 5,4 km/h (2 Bft) O 91 0 min 0 W/m 14,5 C 15,5 C 12,9 km/h (3 Bft)
13.06.2016 22:30 15,6 C 94 % 998,4 hPa 0,0 l/m 3,0 km/h (1 Bft) O 84 0 min 0 W/m 14,6 C 15,6 C 8,0 km/h (2 Bft)
13.06.2016 22:33 15,6 C 94 % 998,5 hPa 0,0 l/m 4,2 km/h (1 Bft) O 94 0 min 0 W/m 14,6 C 15,6 C 16,1 km/h (3 Bft)
13.06.2016 22:36 15,6 C 94 % 998,4 hPa 0,0 l/m 4,3 km/h (1 Bft) O 83 0 min 0 W/m 14,6 C 15,6 C 8,0 km/h (2 Bft)
13.06.2016 22:39 15,6 C 94 % 998,5 hPa 0,0 l/m 4,0 km/h (1 Bft) N-NW 343 0 min 0 W/m 14,6 C 15,6 C 12,9 km/h (3 Bft)
13.06.2016 22:42 15,5 C 94 % 998,4 hPa 0,0 l/m 3,1 km/h (1 Bft) O 88 0 min 0 W/m 14,5 C 15,5 C 9,7 km/h (2 Bft)
13.06.2016 22:45 15,4 C 94 % 998,4 hPa 0,0 l/m 5,7 km/h (2 Bft) O-SO 108 0 min 0 W/m 14,4 C 15,4 C 17,7 km/h (3 Bft)
13.06.2016 22:48 15,4 C 94 % 998,5 hPa 0,0 l/m 4,6 km/h (1 Bft) NO 48 0 min 0 W/m 14,4 C 15,4 C 11,3 km/h (2 Bft)
13.06.2016 22:51 15,4 C 94 % 998,4 hPa 0,0 l/m 4,3 km/h (1 Bft) S 169 0 min 0 W/m 14,4 C 15,4 C 11,3 km/h (2 Bft)
13.06.2016 22:54 15,4 C 94 % 998,4 hPa 0,0 l/m 3,3 km/h (1 Bft) N-NO 30 0 min 0 W/m 14,4 C 15,4 C 11,3 km/h (2 Bft)
13.06.2016 22:57 15,4 C 94 % 998,5 hPa 0,0 l/m 4,6 km/h (1 Bft) O-SO 113 0 min 0 W/m 14,4 C 15,4 C 11,3 km/h (2 Bft)
13.06.2016 23:00 15,4 C 94 % 998,4 hPa 0,0 l/m 3,2 km/h (1 Bft) O-SO 116 0 min 0 W/m 14,4 C 15,4 C 9,7 km/h (2 Bft)
13.06.2016 23:03 15,4 C 94 % 998,4 hPa 0,0 l/m 2,3 km/h (1 Bft) O-NO 67 0 min 0 W/m 14,4 C 15,4 C 8,0 km/h (2 Bft)
13.06.2016 23:06 15,4 C 94 % 998,4 hPa 0,0 l/m 2,4 km/h (1 Bft) N 360 0 min 0 W/m 14,4 C 15,4 C 6,4 km/h (2 Bft)
13.06.2016 23:09 15,4 C 94 % 998,4 hPa 0,0 l/m 3,5 km/h (1 Bft) O 84 0 min 0 W/m 14,4 C 15,4 C 8,0 km/h (2 Bft)
13.06.2016 23:12 15,4 C 94 % 998,3 hPa 0,0 l/m 3,6 km/h (1 Bft) O 88 0 min 0 W/m 14,4 C 15,4 C 9,7 km/h (2 Bft)
13.06.2016 23:15 15,4 C 94 % 998,3 hPa 0,0 l/m 1,8 km/h (1 Bft) O-SO 109 0 min 0 W/m 14,4 C 15,4 C 4,8 km/h (1 Bft)
13.06.2016 23:18 15,4 C 94 % 998,3 hPa 0,0 l/m 2,6 km/h (1 Bft) O 98 0 min 0 W/m 14,4 C 15,4 C 6,4 km/h (2 Bft)
13.06.2016 23:21 15,4 C 94 % 998,3 hPa 0,0 l/m 2,3 km/h (1 Bft) S 178 0 min 0 W/m 14,4 C 15,4 C 4,8 km/h (1 Bft)
13.06.2016 23:24 15,4 C 94 % 998,3 hPa 0,0 l/m 2,7 km/h (1 Bft) N-NO 22 0 min 0 W/m 14,4 C 15,4 C 8,0 km/h (2 Bft)
13.06.2016 23:27 15,4 C 94 % 998,3 hPa 0,0 l/m 3,1 km/h (1 Bft) W-NW 293 0 min 0 W/m 14,4 C 15,4 C 9,7 km/h (2 Bft)
13.06.2016 23:30 15,4 C 93 % 998,2 hPa 0,0 l/m 2,9 km/h (1 Bft) O-NO 61 0 min 0 W/m 14,3 C 15,4 C 8,0 km/h (2 Bft)
13.06.2016 23:33 15,4 C 93 % 998,3 hPa 0,2 l/m 2,9 km/h (1 Bft) O-SO 118 0 min 0 W/m 14,3 C 15,4 C 6,4 km/h (2 Bft)
13.06.2016 23:36 15,5 C 94 % 998,3 hPa 0,4 l/m 1,3 km/h (1 Bft) SO 125 0 min 0 W/m 14,5 C 15,5 C 3,2 km/h (1 Bft)
13.06.2016 23:39 15,5 C 94 % 998,3 hPa 0,0 l/m 4,1 km/h (1 Bft) O 99 0 min 0 W/m 14,5 C 15,5 C 6,4 km/h (2 Bft)
13.06.2016 23:42 15,5 C 94 % 998,3 hPa 0,0 l/m 2,3 km/h (1 Bft) O-SO 121 0 min 0 W/m 14,5 C 15,5 C 4,8 km/h (1 Bft)
13.06.2016 23:45 15,5 C 94 % 998,3 hPa 0,0 l/m 4,2 km/h (1 Bft) N-NO 17 0 min 0 W/m 14,5 C 15,5 C 9,7 km/h (2 Bft)
13.06.2016 23:48 15,5 C 94 % 998,2 hPa 0,0 l/m 3,3 km/h (1 Bft) N-NO 13 0 min 0 W/m 14,5 C 15,5 C 8,0 km/h (2 Bft)
13.06.2016 23:51 15,5 C 94 % 998,3 hPa 0,0 l/m 2,6 km/h (1 Bft) N 11 0 min 0 W/m 14,5 C 15,5 C 8,0 km/h (2 Bft)
13.06.2016 23:54 15,5 C 94 % 998,2 hPa 0,0 l/m 1,8 km/h (1 Bft) O-NO 72 0 min 0 W/m 14,5 C 15,5 C 4,8 km/h (1 Bft)
13.06.2016 23:57 15,4 C 94 % 998,2 hPa 0,4 l/m 3,7 km/h (1 Bft) O 92 0 min 0 W/m 14,4 C 15,4 C 11,3 km/h (2 Bft)
_ Min-Zeit 03:00 16:12 23:30 - 19:12 - - - - 02:36 02:57 19:12
Minimum _ 12,6 C 84 % 998,2 hPa - 0,7 km/h (0 Bft) - - - - 11,9 C 11,9 C 1,6 km/h (1 Bft)
_ Max-Zeit 16:06 05:18 00:00 17:48 19:51 - - 00:00 15:57 19:36 16:06 01:15
Maximum _ 18,1 C 97 % 1005,6 hPa 0,4 l/m 7,8 km/h
S (2 Bft)
- - 0 min 306 W/m 16,0 C 18,0 C 22,5 km/h
O-NO (4 Bft)
Durchschnitt _ 14,7 C 94 % 1000,9 hPa #8,2 l/m 4,1 km/h (1 Bft) O-SO - #0 min. 91 W/m 13,7 C 14,7 C 10,4 km/h (2 Bft)
2016 Cux-Wetter.de -Die Nutzung der Wetterdaten nur mit ausdrcklicher Genehmigung